GFSNIL_prec_precacc_027.txt.gz
Total_Precipitation_Accumulation
0.00 0.00 0.00 0.00 0.00 0.00 0.00 0.00 0.00 0.00 0.00 0.00 0.00 0.00 0.01 0.02 0.01 0.01 0.03 0.07 0.13 0.16
0.00 0.00 0.00 0.00 0.00 0.00 0.00 0.00 0.00 0.00 0.00 0.00 0.00 0.00 0.00 0.00 0.03 0.05 0.08 0.08 0.08 0.10
0.00 0.00 0.00 0.00 0.00 0.00 0.00 0.00 0.00 0.00 0.00 0.00 0.00 0.00 0.01 0.02 0.03 0.04 0.03 0.03 0.03 0.02
0.00 0.00 0.00 0.00 0.00 0.00 0.00 0.00 0.00 0.00 0.01 0.01 0.03 0.07 0.08 0.05 0.03 0.03 0.03 0.03 0.02 0.01
0.00 0.00 0.00 0.00 0.00 0.00 0.01 0.01 0.02 0.01 0.03 0.05 0.06 0.06 0.04 0.02 0.01 0.01 0.01 0.01 0.01 0.00
0.00 0.00 0.00 0.00 0.01 0.01 0.02 0.02 0.02 0.03 0.04 0.04 0.02 0.01 0.01 0.00 0.00 0.00 0.00 0.00 0.00 0.00
0.01 0.01 0.01 0.00 0.02 0.02 0.03 0.02 0.00 0.00 0.01 0.00 0.00 0.00 0.00 0.00 0.00 0.00 0.00 0.00 0.00 0.00
0.00 0.01 0.02 0.02 0.03 0.06 0.02 0.01 0.00 0.00 0.00 0.00 0.00 0.00 0.00 0.00 0.00 0.00 0.00 0.00 0.00 0.00
0.01 0.02 0.03 0.04 0.05 0.01 0.01 0.01 0.00 0.00 0.00 0.00 0.00 0.00 0.00 0.00 0.00 0.00 0.00 0.00 0.00 0.00
0.02 0.02 0.02 0.02 0.03 0.03 0.03 0.01 0.00 0.00 0.00 0.00 0.00 0.00 0.00 0.00 0.00 0.00 0.00 0.00 0.00 0.00
0.02 0.01 0.02 0.05 0.04 0.02 0.00 0.00 0.00 0.00 0.00 0.00 0.00 0.00 0.00 0.00 0.00 0.00 0.00 0.00 0.00 0.00
0.02 0.02 0.02 0.02 0.05 0.02 0.00 0.00 0.00 0.00 0.00 0.00 0.00 0.00 0.00 0.00 0.00 0.01 0.01 0.00 0.00 0.01
0.02 0.03 0.08 0.10 0.02 0.00 0.00 0.00 0.00 0.00 0.00 0.00 0.00 0.01 0.00 0.01 0.02 0.02 0.02 0.02 0.01 0.01
0.09 0.07 0.03 0.00 0.00 0.00 0.00 0.00 0.00 0.01 0.01 0.01 0.01 0.01 0.00 0.01 0.02 0.05 0.07 0.04 0.03 0.05

GFSNIL_prec_precacc_030.txt.gz
Total_Precipitation_Accumulation
0.00 0.00 0.00 0.00 0.00 0.00 0.00 0.00 0.00 0.00 0.00 0.00 0.00 0.00 0.01 0.03 0.02 0.02 0.04 0.07 0.13 0.16
0.00 0.00 0.00 0.00 0.00 0.00 0.00 0.00 0.00 0.00 0.00 0.00 0.00 0.00 0.00 0.01 0.04 0.05 0.08 0.08 0.08 0.10
0.00 0.00 0.00 0.00 0.00 0.00 0.00 0.00 0.00 0.00 0.00 0.00 0.00 0.01 0.01 0.03 0.04 0.04 0.03 0.03 0.03 0.02
0.00 0.00 0.00 0.00 0.00 0.00 0.00 0.00 0.00 0.00 0.01 0.01 0.03 0.08 0.10 0.06 0.04 0.03 0.03 0.03 0.02 0.01
0.00 0.00 0.00 0.00 0.00 0.00 0.01 0.01 0.02 0.01 0.03 0.05 0.07 0.07 0.05 0.03 0.01 0.01 0.01 0.01 0.01 0.00
0.00 0.00 0.00 0.00 0.01 0.01 0.02 0.02 0.02 0.03 0.05 0.04 0.03 0.02 0.01 0.00 0.00 0.00 0.00 0.00 0.00 0.00
0.01 0.01 0.01 0.00 0.02 0.02 0.03 0.02 0.00 0.01 0.01 0.00 0.00 0.00 0.00 0.00 0.00 0.00 0.00 0.00 0.00 0.00
0.00 0.01 0.02 0.02 0.03 0.06 0.02 0.01 0.00 0.00 0.00 0.00 0.00 0.00 0.00 0.00 0.00 0.00 0.00 0.00 0.00 0.00
0.01 0.02 0.03 0.04 0.05 0.01 0.01 0.01 0.00 0.00 0.00 0.00 0.00 0.00 0.00 0.00 0.00 0.00 0.00 0.00 0.00 0.00
0.02 0.02 0.02 0.02 0.03 0.03 0.03 0.01 0.00 0.00 0.00 0.00 0.00 0.00 0.00 0.00 0.00 0.00 0.00 0.00 0.00 0.00
0.02 0.01 0.02 0.05 0.04 0.02 0.00 0.00 0.00 0.00 0.00 0.00 0.00 0.00 0.00 0.00 0.00 0.00 0.00 0.00 0.00 0.00
0.02 0.02 0.02 0.02 0.05 0.02 0.00 0.00 0.00 0.00 0.00 0.00 0.00 0.00 0.00 0.00 0.00 0.01 0.01 0.00 0.00 0.01
0.02 0.03 0.08 0.10 0.02 0.00 0.00 0.00 0.00 0.00 0.00 0.00 0.00 0.01 0.00 0.01 0.02 0.02 0.02 0.02 0.01 0.01
0.09 0.07 0.03 0.00 0.00 0.00 0.00 0.00 0.00 0.01 0.01 0.01 0.01 0.01 0.00 0.01 0.02 0.05 0.07 0.04 0.03 0.05

GFSNIL_prec_precacc_033.txt.gz
Total_Precipitation_Accumulation
0.00 0.00 0.00 0.00 0.00 0.00 0.00 0.00 0.00 0.00 0.00 0.00 0.00 0.00 0.01 0.03 0.03 0.04 0.06 0.09 0.13 0.16
0.00 0.00 0.00 0.00 0.00 0.00 0.00 0.00 0.00 0.00 0.00 0.00 0.00 0.00 0.00 0.02 0.04 0.07 0.10 0.09 0.09 0.12
0.00 0.00 0.00 0.00 0.00 0.00 0.00 0.00 0.00 0.00 0.00 0.00 0.00 0.01 0.01 0.03 0.06 0.08 0.06 0.05 0.04 0.03
0.00 0.00 0.00 0.00 0.00 0.00 0.00 0.00 0.00 0.00 0.01 0.01 0.03 0.08 0.10 0.08 0.06 0.04 0.03 0.03 0.03 0.02
0.00 0.00 0.00 0.00 0.00 0.00 0.01 0.01 0.02 0.01 0.03 0.05 0.07 0.07 0.07 0.04 0.01 0.01 0.01 0.01 0.01 0.00
0.00 0.00 0.00 0.00 0.01 0.01 0.02 0.02 0.02 0.03 0.05 0.04 0.03 0.02 0.01 0.00 0.00 0.00 0.00 0.00 0.00 0.00
0.01 0.01 0.01 0.00 0.02 0.02 0.03 0.02 0.00 0.01 0.01 0.00 0.00 0.00 0.00 0.00 0.00 0.00 0.00 0.00 0.00 0.00
0.00 0.01 0.02 0.02 0.03 0.06 0.02 0.01 0.00 0.00 0.00 0.00 0.00 0.00 0.00 0.00 0.00 0.00 0.00 0.00 0.00 0.00
0.01 0.02 0.03 0.04 0.05 0.01 0.01 0.01 0.00 0.00 0.00 0.00 0.00 0.00 0.00 0.00 0.00 0.00 0.00 0.00 0.00 0.00
0.02 0.02 0.02 0.02 0.03 0.03 0.03 0.01 0.00 0.00 0.00 0.00 0.00 0.00 0.00 0.00 0.00 0.00 0.00 0.00 0.00 0.00
0.02 0.01 0.02 0.05 0.04 0.02 0.00 0.00 0.00 0.00 0.00 0.00 0.00 0.00 0.00 0.00 0.00 0.00 0.00 0.00 0.00 0.00
0.02 0.02 0.02 0.02 0.05 0.02 0.00 0.00 0.00 0.00 0.00 0.00 0.00 0.00 0.00 0.00 0.00 0.01 0.01 0.00 0.00 0.01
0.02 0.03 0.08 0.10 0.02 0.00 0.00 0.00 0.00 0.00 0.00 0.00 0.00 0.01 0.00 0.01 0.02 0.02 0.02 0.02 0.01 0.01
0.09 0.07 0.03 0.00 0.00 0.00 0.00 0.00 0.00 0.01 0.01 0.01 0.01 0.01 0.00 0.01 0.02 0.05 0.07 0.04 0.03 0.05

GFSNIL_prec_precacc_036.txt.gz
Total_Precipitation_Accumulation
0.00 0.00 0.00 0.00 0.00 0.00 0.00 0.00 0.00 0.00 0.00 0.00 0.00 0.00 0.01 0.03 0.03 0.04 0.07 0.11 0.15 0.17
0.00 0.00 0.00 0.00 0.00 0.00 0.00 0.00 0.00 0.00 0.00 0.00 0.00 0.00 0.00 0.02 0.04 0.07 0.11 0.11 0.11 0.13
0.00 0.00 0.00 0.00 0.00 0.00 0.00 0.00 0.00 0.00 0.00 0.00 0.00 0.01 0.01 0.03 0.06 0.08 0.07 0.06 0.05 0.04
0.00 0.00 0.00 0.00 0.00 0.00 0.00 0.00 0.00 0.00 0.01 0.01 0.03 0.08 0.10 0.08 0.06 0.05 0.04 0.03 0.04 0.03
0.00 0.00 0.00 0.00 0.00 0.00 0.01 0.01 0.02 0.01 0.03 0.05 0.07 0.07 0.07 0.04 0.02 0.01 0.01 0.01 0.01 0.01
0.00 0.00 0.00 0.00 0.01 0.01 0.02 0.02 0.02 0.03 0.05 0.04 0.03 0.02 0.01 0.00 0.00 0.00 0.00 0.00 0.00 0.00
0.01 0.01 0.01 0.00 0.02 0.02 0.03 0.02 0.00 0.01 0.01 0.00 0.00 0.00 0.00 0.00 0.00 0.00 0.00 0.00 0.00 0.00
0.00 0.01 0.02 0.02 0.03 0.06 0.02 0.01 0.00 0.00 0.00 0.00 0.00 0.00 0.00 0.00 0.00 0.00 0.00 0.00 0.00 0.00
0.01 0.02 0.03 0.04 0.05 0.01 0.01 0.01 0.00 0.00 0.00 0.00 0.00 0.00 0.00 0.00 0.00 0.00 0.00 0.00 0.00 0.00
0.02 0.02 0.02 0.02 0.03 0.03 0.03 0.01 0.00 0.00 0.00 0.00 0.00 0.00 0.00 0.00 0.00 0.00 0.00 0.00 0.00 0.00
0.02 0.01 0.02 0.05 0.04 0.02 0.00 0.00 0.00 0.00 0.00 0.00 0.00 0.00 0.00 0.00 0.00 0.00 0.00 0.00 0.00 0.00
0.02 0.02 0.02 0.02 0.05 0.02 0.00 0.00 0.00 0.00 0.00 0.01 0.00 0.00 0.00 0.00 0.00 0.01 0.01 0.00 0.00 0.01
0.02 0.03 0.08 0.10 0.02 0.00 0.00 0.00 0.00 0.00 0.00 0.00 0.01 0.01 0.00 0.01 0.02 0.02 0.02 0.02 0.01 0.01
0.09 0.08 0.03 0.00 0.00 0.00 0.00 0.00 0.00 0.01 0.01 0.01 0.01 0.01 0.00 0.01 0.02 0.05 0.07 0.04 0.03 0.05

GFSNIL_prec_precacc_039.txt.gz
Total_Precipitation_Accumulation
0.00 0.00 0.00 0.00 0.00 0.00 0.00 0.00 0.00 0.00 0.00 0.00 0.00 0.00 0.01 0.03 0.03 0.04 0.07 0.11 0.15 0.17
0.00 0.00 0.00 0.00 0.00 0.00 0.00 0.00 0.00 0.00 0.00 0.00 0.00 0.00 0.00 0.02 0.04 0.07 0.11 0.11 0.11 0.13
0.00 0.00 0.00 0.00 0.00 0.00 0.00 0.00 0.00 0.00 0.00 0.00 0.00 0.01 0.01 0.03 0.06 0.08 0.07 0.06 0.05 0.04
0.00 0.00 0.00 0.00 0.00 0.00 0.00 0.00 0.00 0.00 0.01 0.01 0.03 0.08 0.10 0.08 0.06 0.05 0.04 0.03 0.04 0.03
0.00 0.00 0.00 0.00 0.00 0.00 0.01 0.01 0.02 0.01 0.03 0.05 0.07 0.07 0.07 0.04 0.02 0.01 0.01 0.01 0.01 0.01
0.00 0.00 0.00 0.00 0.01 0.01 0.02 0.02 0.02 0.03 0.05 0.04 0.03 0.02 0.01 0.00 0.00 0.00 0.00 0.00 0.00 0.00
0.01 0.01 0.01 0.00 0.02 0.02 0.03 0.02 0.00 0.01 0.01 0.00 0.00 0.00 0.00 0.00 0.00 0.00 0.00 0.00 0.00 0.00
0.00 0.01 0.02 0.02 0.03 0.06 0.02 0.01 0.00 0.00 0.00 0.00 0.00 0.00 0.00 0.00 0.00 0.00 0.00 0.00 0.00 0.00
0.01 0.02 0.03 0.04 0.05 0.01 0.01 0.01 0.00 0.00 0.00 0.00 0.00 0.00 0.00 0.00 0.00 0.00 0.00 0.00 0.00 0.00
0.02 0.02 0.02 0.02 0.03 0.03 0.03 0.01 0.00 0.00 0.00 0.00 0.00 0.00 0.00 0.00 0.00 0.00 0.00 0.00 0.00 0.00
0.02 0.01 0.02 0.05 0.04 0.02 0.00 0.00 0.00 0.00 0.00 0.00 0.00 0.00 0.00 0.00 0.00 0.00 0.00 0.00 0.00 0.00
0.02 0.02 0.02 0.02 0.05 0.02 0.00 0.00 0.00 0.00 0.00 0.01 0.00 0.00 0.00 0.00 0.00 0.01 0.01 0.00 0.00 0.01
0.02 0.04 0.09 0.10 0.02 0.00 0.00 0.00 0.00 0.00 0.00 0.00 0.01 0.01 0.00 0.01 0.02 0.02 0.02 0.02 0.01 0.01
0.09 0.08 0.03 0.00 0.00 0.00 0.00 0.00 0.00 0.01 0.01 0.01 0.01 0.01 0.00 0.01 0.02 0.05 0.07 0.04 0.03 0.05

GFSNIL_prec_precacc_042.txt.gz
Total_Precipitation_Accumulation
0.00 0.00 0.00 0.00 0.00 0.00 0.00 0.00 0.00 0.00 0.00 0.00 0.00 0.00 0.01 0.03 0.03 0.04 0.07 0.11 0.15 0.17
0.00 0.00 0.00 0.00 0.00 0.00 0.00 0.00 0.00 0.00 0.00 0.00 0.00 0.00 0.00 0.02 0.04 0.07 0.11 0.11 0.11 0.13
0.01 0.00 0.01 0.01 0.00 0.00 0.00 0.00 0.00 0.00 0.00 0.00 0.00 0.01 0.01 0.03 0.06 0.08 0.07 0.06 0.05 0.04
0.01 0.00 0.00 0.00 0.00 0.00 0.00 0.00 0.01 0.01 0.01 0.01 0.03 0.08 0.10 0.08 0.06 0.05 0.04 0.03 0.04 0.03
0.00 0.00 0.00 0.00 0.00 0.00 0.01 0.01 0.02 0.01 0.03 0.05 0.07 0.07 0.07 0.04 0.02 0.01 0.01 0.01 0.01 0.01
0.00 0.00 0.00 0.01 0.01 0.01 0.02 0.02 0.02 0.03 0.05 0.04 0.03 0.02 0.01 0.00 0.00 0.00 0.00 0.00 0.00 0.00
0.01 0.01 0.01 0.00 0.02 0.02 0.03 0.02 0.00 0.01 0.01 0.00 0.00 0.00 0.00 0.00 0.00 0.00 0.00 0.00 0.00 0.00
0.00 0.01 0.02 0.02 0.03 0.06 0.02 0.01 0.00 0.00 0.00 0.00 0.00 0.00 0.00 0.00 0.00 0.00 0.00 0.00 0.00 0.00
0.01 0.02 0.03 0.04 0.05 0.01 0.01 0.01 0.00 0.00 0.00 0.00 0.00 0.00 0.00 0.00 0.00 0.00 0.00 0.00 0.00 0.00
0.02 0.02 0.02 0.02 0.03 0.03 0.03 0.01 0.00 0.00 0.00 0.00 0.00 0.00 0.00 0.00 0.00 0.00 0.00 0.00 0.00 0.00
0.02 0.01 0.03 0.06 0.05 0.03 0.00 0.00 0.00 0.00 0.00 0.00 0.00 0.00 0.00 0.00 0.00 0.00 0.00 0.00 0.00 0.00
0.02 0.03 0.06 0.07 0.07 0.02 0.00 0.00 0.00 0.00 0.00 0.01 0.00 0.00 0.00 0.00 0.00 0.01 0.01 0.00 0.00 0.01
0.05 0.08 0.11 0.11 0.02 0.00 0.00 0.00 0.00 0.00 0.00 0.00 0.01 0.01 0.00 0.01 0.02 0.02 0.02 0.02 0.01 0.01
0.12 0.08 0.03 0.00 0.00 0.00 0.00 0.00 0.00 0.01 0.01 0.01 0.01 0.01 0.00 0.01 0.02 0.05 0.07 0.04 0.03 0.05

GFSNIL_prec_precacc_045.txt.gz
Total_Precipitation_Accumulation
0.01 0.00 0.00 0.00 0.00 0.00 0.00 0.00 0.00 0.00 0.01 0.01 0.00 0.00 0.01 0.03 0.03 0.04 0.07 0.11 0.15 0.17
0.06 0.03 0.01 0.01 0.01 0.01 0.00 0.01 0.02 0.02 0.01 0.00 0.00 0.00 0.00 0.02 0.04 0.07 0.11 0.11 0.11 0.13
0.04 0.02 0.02 0.02 0.02 0.00 0.01 0.02 0.02 0.01 0.01 0.01 0.00 0.01 0.01 0.03 0.06 0.08 0.07 0.06 0.05 0.04
0.03 0.02 0.02 0.02 0.01 0.00 0.00 0.01 0.02 0.02 0.01 0.01 0.03 0.08 0.10 0.08 0.06 0.05 0.04 0.03 0.04 0.03
0.01 0.00 0.00 0.00 0.00 0.01 0.02 0.02 0.02 0.01 0.03 0.05 0.07 0.07 0.07 0.04 0.02 0.01 0.01 0.01 0.01 0.01
0.02 0.02 0.02 0.02 0.02 0.02 0.02 0.02 0.02 0.03 0.05 0.04 0.03 0.02 0.01 0.00 0.00 0.00 0.00 0.00 0.00 0.00
0.02 0.02 0.02 0.01 0.02 0.02 0.03 0.02 0.00 0.01 0.01 0.00 0.00 0.00 0.00 0.00 0.00 0.00 0.00 0.00 0.00 0.00
0.01 0.01 0.02 0.02 0.03 0.06 0.02 0.01 0.00 0.00 0.00 0.00 0.00 0.00 0.00 0.00 0.00 0.00 0.00 0.00 0.00 0.00
0.02 0.03 0.03 0.04 0.05 0.01 0.01 0.01 0.02 0.01 0.00 0.00 0.00 0.00 0.00 0.00 0.00 0.00 0.00 0.00 0.00 0.00
0.02 0.02 0.02 0.02 0.03 0.04 0.09 0.05 0.01 0.00 0.00 0.00 0.00 0.00 0.00 0.00 0.00 0.00 0.00 0.00 0.00 0.00
0.02 0.01 0.03 0.08 0.13 0.12 0.04 0.00 0.00 0.00 0.00 0.00 0.00 0.00 0.00 0.00 0.00 0.00 0.00 0.00 0.00 0.00
0.02 0.04 0.11 0.17 0.13 0.03 0.00 0.00 0.00 0.00 0.00 0.01 0.00 0.00 0.00 0.00 0.00 0.01 0.01 0.00 0.00 0.01
0.11 0.20 0.19 0.13 0.02 0.00 0.00 0.00 0.00 0.00 0.00 0.00 0.01 0.01 0.00 0.01 0.02 0.02 0.02 0.02 0.01 0.01
0.19 0.09 0.03 0.00 0.00 0.00 0.00 0.00 0.00 0.01 0.01 0.01 0.01 0.01 0.00 0.01 0.02 0.05 0.07 0.04 0.03 0.05

GFSNIL_prec_precacc_048.txt.gz
Total_Precipitation_Accumulation
0.10 0.10 0.07 0.04 0.00 0.00 0.00 0.00 0.01 0.01 0.03 0.04 0.03 0.01 0.02 0.03 0.03 0.04 0.07 0.11 0.15 0.17
0.18 0.17 0.14 0.08 0.03 0.02 0.01 0.01 0.08 0.12 0.05 0.01 0.01 0.01 0.00 0.02 0.04 0.07 0.11 0.11 0.11 0.13
0.14 0.13 0.11 0.10 0.07 0.04 0.03 0.05 0.05 0.01 0.02 0.02 0.01 0.01 0.01 0.03 0.06 0.08 0.07 0.06 0.05 0.04
0.10 0.10 0.09 0.09 0.06 0.03 0.01 0.01 0.02 0.03 0.02 0.02 0.03 0.08 0.10 0.08 0.06 0.05 0.04 0.03 0.04 0.03
0.12 0.09 0.06 0.04 0.03 0.03 0.02 0.02 0.04 0.04 0.03 0.05 0.07 0.07 0.07 0.04 0.02 0.01 0.01 0.01 0.01 0.01
0.08 0.06 0.03 0.03 0.03 0.02 0.02 0.02 0.02 0.03 0.05 0.04 0.03 0.02 0.01 0.00 0.00 0.00 0.00 0.00 0.00 0.00
0.06 0.04 0.03 0.02 0.02 0.02 0.03 0.02 0.01 0.01 0.01 0.02 0.01 0.00 0.00 0.00 0.00 0.00 0.00 0.00 0.00 0.00
0.03 0.02 0.02 0.02 0.03 0.06 0.02 0.01 0.00 0.02 0.04 0.02 0.00 0.00 0.00 0.00 0.00 0.00 0.00 0.00 0.00 0.00
0.02 0.03 0.03 0.04 0.05 0.01 0.01 0.02 0.06 0.07 0.03 0.01 0.00 0.00 0.00 0.00 0.00 0.00 0.00 0.00 0.00 0.00
0.02 0.02 0.02 0.02 0.03 0.05 0.11 0.12 0.07 0.02 0.00 0.00 0.00 0.00 0.00 0.00 0.00 0.00 0.00 0.00 0.00 0.00
0.02 0.01 0.03 0.09 0.14 0.16 0.12 0.06 0.01 0.00 0.00 0.00 0.00 0.00 0.00 0.00 0.00 0.00 0.00 0.00 0.00 0.00
0.02 0.04 0.12 0.20 0.22 0.12 0.03 0.00 0.00 0.00 0.00 0.01 0.00 0.00 0.00 0.00 0.00 0.01 0.01 0.00 0.00 0.01
0.13 0.26 0.28 0.19 0.04 0.00 0.00 0.00 0.00 0.00 0.00 0.00 0.01 0.01 0.00 0.01 0.02 0.02 0.02 0.02 0.01 0.01
0.22 0.10 0.03 0.00 0.00 0.00 0.00 0.00 0.00 0.01 0.01 0.01 0.01 0.01 0.00 0.01 0.02 0.05 0.07 0.04 0.03 0.05

GFSNIL_prec_precacc_051.txt.gz
Total_Precipitation_Accumulation
0.13 0.14 0.17 0.18 0.09 0.03 0.02 0.01 0.01 0.02 0.05 0.06 0.03 0.01 0.02 0.03 0.03 0.04 0.07 0.11 0.15 0.17
0.24 0.27 0.27 0.22 0.16 0.11 0.04 0.02 0.08 0.14 0.06 0.01 0.01 0.01 0.01 0.02 0.04 0.07 0.11 0.11 0.11 0.13
0.19 0.23 0.24 0.23 0.19 0.12 0.08 0.07 0.06 0.02 0.02 0.03 0.02 0.01 0.01 0.03 0.06 0.08 0.07 0.06 0.05 0.04
0.16 0.19 0.20 0.20 0.15 0.09 0.05 0.03 0.03 0.04 0.04 0.06 0.09 0.11 0.10 0.09 0.07 0.05 0.04 0.03 0.04 0.03
0.25 0.22 0.17 0.12 0.08 0.06 0.04 0.04 0.04 0.05 0.05 0.06 0.07 0.08 0.08 0.05 0.02 0.01 0.01 0.01 0.01 0.01
0.17 0.14 0.11 0.07 0.04 0.03 0.02 0.02 0.02 0.03 0.06 0.07 0.05 0.04 0.02 0.00 0.00 0.00 0.00 0.00 0.00 0.00
0.15 0.11 0.06 0.03 0.02 0.02 0.03 0.03 0.02 0.02 0.02 0.03 0.02 0.00 0.00 0.00 0.00 0.00 0.00 0.00 0.00 0.00
0.05 0.03 0.03 0.02 0.03 0.06 0.03 0.01 0.01 0.02 0.05 0.03 0.01 0.00 0.00 0.00 0.00 0.00 0.00 0.00 0.00 0.00
0.02 0.03 0.03 0.04 0.05 0.01 0.01 0.03 0.08 0.09 0.05 0.03 0.01 0.00 0.00 0.00 0.00 0.00 0.00 0.00 0.00 0.00
0.02 0.02 0.02 0.02 0.03 0.05 0.13 0.15 0.13 0.12 0.08 0.03 0.01 0.00 0.00 0.00 0.00 0.00 0.00 0.00 0.00 0.00
0.02 0.01 0.03 0.09 0.15 0.19 0.18 0.16 0.10 0.03 0.00 0.00 0.00 0.00 0.00 0.00 0.00 0.00 0.00 0.00 0.00 0.00
0.02 0.05 0.13 0.23 0.26 0.17 0.07 0.01 0.00 0.00 0.00 0.01 0.00 0.00 0.00 0.00 0.00 0.01 0.01 0.00 0.00 0.01
0.13 0.27 0.29 0.20 0.04 0.00 0.00 0.00 0.00 0.00 0.00 0.00 0.01 0.01 0.00 0.01 0.02 0.02 0.02 0.02 0.01 0.01
0.22 0.10 0.03 0.00 0.00 0.00 0.00 0.00 0.00 0.01 0.01 0.01 0.01 0.01 0.00 0.01 0.02 0.05 0.07 0.04 0.03 0.05

GFSNIL_prec_precacc_054.txt.gz
Total_Precipitation_Accumulation
0.16 0.17 0.18 0.19 0.13 0.08 0.08 0.10 0.05 0.02 0.06 0.06 0.04 0.01 0.02 0.03 0.03 0.05 0.07 0.11 0.15 0.17
0.30 0.33 0.29 0.25 0.20 0.16 0.10 0.08 0.13 0.17 0.09 0.02 0.01 0.02 0.02 0.04 0.06 0.08 0.11 0.11 0.11 0.13
0.21 0.26 0.26 0.26 0.24 0.18 0.14 0.11 0.11 0.12 0.09 0.04 0.04 0.05 0.06 0.07 0.07 0.10 0.09 0.07 0.05 0.04
0.19 0.23 0.24 0.25 0.21 0.15 0.09 0.06 0.06 0.05 0.05 0.07 0.11 0.16 0.15 0.10 0.09 0.07 0.04 0.03 0.04 0.03
0.27 0.27 0.22 0.17 0.13 0.09 0.06 0.04 0.05 0.06 0.06 0.08 0.10 0.10 0.11 0.09 0.04 0.01 0.01 0.01 0.01 0.01
0.19 0.18 0.16 0.11 0.07 0.04 0.02 0.02 0.03 0.04 0.07 0.08 0.08 0.11 0.09 0.04 0.01 0.00 0.00 0.00 0.00 0.00
0.16 0.13 0.08 0.04 0.03 0.03 0.04 0.03 0.02 0.03 0.03 0.04 0.06 0.05 0.03 0.01 0.00 0.00 0.00 0.00 0.00 0.00
0.05 0.03 0.03 0.02 0.03 0.06 0.03 0.02 0.01 0.03 0.07 0.06 0.03 0.02 0.00 0.00 0.00 0.00 0.00 0.00 0.00 0.00
0.02 0.03 0.03 0.04 0.05 0.02 0.01 0.03 0.08 0.10 0.07 0.06 0.03 0.02 0.00 0.00 0.00 0.00 0.00 0.00 0.00 0.00
0.02 0.02 0.02 0.02 0.03 0.06 0.13 0.16 0.15 0.15 0.10 0.04 0.01 0.00 0.00 0.00 0.00 0.00 0.00 0.00 0.00 0.00
0.02 0.01 0.03 0.09 0.16 0.22 0.19 0.17 0.11 0.03 0.01 0.01 0.00 0.00 0.00 0.00 0.00 0.00 0.00 0.00 0.00 0.00
0.02 0.05 0.13 0.23 0.26 0.17 0.07 0.01 0.00 0.00 0.00 0.01 0.00 0.00 0.00 0.00 0.00 0.01 0.01 0.00 0.00 0.01
0.13 0.27 0.29 0.20 0.04 0.00 0.00 0.00 0.00 0.00 0.00 0.00 0.01 0.01 0.00 0.01 0.02 0.02 0.02 0.02 0.01 0.01
0.22 0.10 0.03 0.00 0.00 0.00 0.00 0.00 0.00 0.01 0.01 0.01 0.01 0.01 0.00 0.01 0.02 0.05 0.07 0.04 0.03 0.05

GFSNIL_prec_precacc_057.txt.gz
Total_Precipitation_Accumulation
0.19 0.19 0.18 0.19 0.13 0.08 0.08 0.12 0.21 0.27 0.25 0.20 0.12 0.04 0.06 0.06 0.03 0.05 0.07 0.11 0.16 0.17
0.32 0.34 0.30 0.25 0.21 0.17 0.12 0.09 0.17 0.25 0.18 0.16 0.17 0.11 0.07 0.05 0.07 0.09 0.12 0.13 0.13 0.13
0.24 0.29 0.28 0.29 0.29 0.22 0.16 0.13 0.13 0.14 0.18 0.16 0.11 0.09 0.08 0.07 0.09 0.11 0.13 0.10 0.05 0.04
0.25 0.24 0.25 0.27 0.23 0.15 0.09 0.07 0.07 0.07 0.09 0.11 0.14 0.19 0.18 0.14 0.12 0.11 0.06 0.03 0.04 0.03
0.29 0.29 0.24 0.18 0.13 0.09 0.06 0.05 0.06 0.08 0.07 0.09 0.12 0.13 0.13 0.10 0.07 0.04 0.02 0.01 0.01 0.01
0.21 0.19 0.16 0.12 0.07 0.04 0.03 0.04 0.04 0.05 0.08 0.09 0.08 0.12 0.11 0.06 0.04 0.01 0.00 0.00 0.00 0.00
0.17 0.14 0.08 0.04 0.03 0.03 0.04 0.03 0.02 0.03 0.04 0.06 0.08 0.07 0.05 0.03 0.01 0.00 0.00 0.00 0.00 0.00
0.07 0.04 0.03 0.03 0.03 0.06 0.03 0.02 0.01 0.03 0.07 0.06 0.04 0.04 0.02 0.01 0.00 0.00 0.00 0.00 0.00 0.00
0.02 0.03 0.03 0.04 0.05 0.02 0.01 0.03 0.08 0.10 0.08 0.06 0.03 0.02 0.00 0.00 0.00 0.00 0.00 0.00 0.00 0.00
0.02 0.02 0.02 0.02 0.03 0.06 0.13 0.16 0.15 0.15 0.10 0.04 0.01 0.01 0.00 0.00 0.00 0.00 0.00 0.00 0.00 0.00
0.02 0.01 0.03 0.09 0.16 0.22 0.19 0.17 0.11 0.03 0.01 0.01 0.00 0.00 0.00 0.00 0.00 0.00 0.00 0.00 0.00 0.00
0.02 0.05 0.13 0.23 0.26 0.17 0.07 0.01 0.00 0.00 0.00 0.01 0.00 0.00 0.00 0.00 0.00 0.01 0.01 0.00 0.00 0.01
0.13 0.27 0.29 0.20 0.04 0.00 0.00 0.00 0.00 0.00 0.00 0.00 0.01 0.01 0.00 0.01 0.02 0.02 0.02 0.02 0.01 0.01
0.22 0.10 0.03 0.00 0.00 0.00 0.00 0.00 0.00 0.01 0.01 0.01 0.01 0.01 0.00 0.01 0.02 0.05 0.07 0.04 0.03 0.05

GFSNIL_prec_precacc_060.txt.gz
Total_Precipitation_Accumulation
0.24 0.27 0.36 0.29 0.26 0.16 0.16 0.17 0.27 0.30 0.26 0.21 0.17 0.16 0.21 0.29 0.32 0.26 0.16 0.12 0.16 0.18
0.34 0.36 0.30 0.27 0.29 0.27 0.18 0.12 0.21 0.27 0.19 0.17 0.20 0.22 0.22 0.19 0.16 0.13 0.16 0.17 0.18 0.17
0.26 0.33 0.33 0.52 0.44 0.34 0.21 0.18 0.16 0.15 0.18 0.17 0.13 0.13 0.14 0.10 0.11 0.14 0.16 0.14 0.09 0.06
0.32 0.50 0.54 0.36 0.31 0.24 0.15 0.09 0.08 0.07 0.10 0.13 0.17 0.22 0.21 0.16 0.13 0.12 0.08 0.06 0.05 0.03
0.54 0.40 0.32 0.24 0.18 0.13 0.07 0.06 0.06 0.08 0.10 0.14 0.17 0.17 0.14 0.11 0.07 0.04 0.03 0.02 0.01 0.01
0.43 0.23 0.21 0.15 0.10 0.06 0.05 0.05 0.06 0.06 0.08 0.09 0.09 0.12 0.12 0.07 0.04 0.02 0.00 0.00 0.01 0.00
0.19 0.18 0.10 0.06 0.06 0.04 0.05 0.04 0.03 0.03 0.04 0.06 0.08 0.07 0.06 0.04 0.01 0.00 0.00 0.00 0.00 0.00
0.08 0.07 0.04 0.04 0.04 0.07 0.03 0.02 0.01 0.03 0.07 0.06 0.04 0.04 0.03 0.01 0.00 0.00 0.00 0.00 0.00 0.00
0.04 0.04 0.04 0.04 0.05 0.02 0.01 0.03 0.08 0.10 0.08 0.06 0.04 0.03 0.01 0.00 0.00 0.00 0.00 0.00 0.00 0.00
0.02 0.02 0.02 0.02 0.03 0.06 0.13 0.16 0.15 0.15 0.10 0.04 0.01 0.01 0.00 0.00 0.00 0.00 0.00 0.00 0.00 0.00
0.02 0.01 0.03 0.09 0.16 0.22 0.19 0.17 0.11 0.03 0.01 0.01 0.00 0.00 0.00 0.00 0.00 0.00 0.00 0.00 0.00 0.00
0.02 0.05 0.13 0.23 0.26 0.17 0.07 0.01 0.00 0.00 0.00 0.01 0.00 0.00 0.00 0.00 0.00 0.01 0.01 0.00 0.00 0.01
0.13 0.27 0.29 0.20 0.04 0.00 0.00 0.00 0.00 0.00 0.00 0.00 0.01 0.01 0.00 0.01 0.02 0.02 0.02 0.02 0.01 0.01
0.22 0.10 0.03 0.00 0.00 0.00 0.00 0.00 0.00 0.01 0.01 0.01 0.01 0.01 0.00 0.01 0.02 0.05 0.07 0.04 0.03 0.05

GFSNIL_prec_precacc_063.txt.gz
Total_Precipitation_Accumulation
0.25 0.31 0.37 0.35 0.29 0.17 0.19 0.23 0.39 0.48 0.40 0.27 0.18 0.16 0.21 0.30 0.33 0.29 0.25 0.19 0.20 0.21
0.36 0.39 0.30 0.30 0.48 0.36 0.25 0.17 0.32 0.44 0.28 0.20 0.20 0.22 0.23 0.20 0.20 0.19 0.18 0.18 0.20 0.18
0.27 0.37 0.38 0.69 0.91 0.96 0.68 0.40 0.24 0.22 0.20 0.17 0.14 0.14 0.16 0.18 0.18 0.17 0.16 0.15 0.09 0.06
0.39 0.56 0.74 0.64 0.89 0.51 0.30 0.19 0.13 0.09 0.10 0.14 0.17 0.23 0.24 0.20 0.16 0.13 0.09 0.06 0.05 0.03
0.97 0.90 0.82 0.86 0.73 0.30 0.13 0.14 0.09 0.09 0.11 0.14 0.17 0.17 0.15 0.12 0.08 0.05 0.04 0.02 0.02 0.01
0.79 0.47 0.39 0.24 0.16 0.10 0.08 0.06 0.06 0.06 0.09 0.10 0.09 0.13 0.14 0.11 0.06 0.02 0.01 0.01 0.01 0.00
0.29 0.23 0.12 0.09 0.07 0.06 0.05 0.04 0.03 0.03 0.04 0.07 0.10 0.10 0.07 0.04 0.02 0.00 0.00 0.00 0.00 0.00
0.09 0.09 0.07 0.06 0.06 0.08 0.03 0.02 0.01 0.03 0.08 0.07 0.05 0.04 0.03 0.01 0.00 0.00 0.00 0.00 0.00 0.00
0.04 0.04 0.05 0.05 0.05 0.02 0.01 0.03 0.08 0.10 0.08 0.06 0.04 0.03 0.01 0.00 0.00 0.00 0.00 0.00 0.00 0.00
0.04 0.03 0.02 0.03 0.03 0.06 0.13 0.16 0.15 0.15 0.10 0.04 0.01 0.01 0.00 0.00 0.00 0.00 0.00 0.00 0.00 0.00
0.03 0.02 0.03 0.09 0.16 0.22 0.19 0.17 0.11 0.03 0.01 0.01 0.00 0.00 0.00 0.00 0.00 0.00 0.00 0.00 0.00 0.00
0.02 0.05 0.13 0.23 0.26 0.17 0.07 0.01 0.00 0.00 0.00 0.01 0.00 0.00 0.00 0.00 0.00 0.01 0.01 0.00 0.00 0.01
0.13 0.27 0.29 0.20 0.04 0.00 0.00 0.00 0.00 0.00 0.00 0.00 0.01 0.01 0.00 0.01 0.02 0.02 0.02 0.02 0.01 0.01
0.22 0.10 0.03 0.00 0.00 0.00 0.00 0.00 0.00 0.01 0.01 0.01 0.01 0.01 0.00 0.01 0.02 0.05 0.07 0.04 0.03 0.05

GFSNIL_prec_precacc_066.txt.gz
Total_Precipitation_Accumulation
0.25 0.31 0.37 0.36 0.30 0.19 0.20 0.24 0.39 0.52 0.54 0.43 0.27 0.21 0.23 0.30 0.34 0.31 0.28 0.29 0.29 0.23
0.37 0.40 0.30 0.34 0.56 0.39 0.33 0.23 0.37 0.48 0.39 0.38 0.29 0.23 0.23 0.21 0.20 0.23 0.28 0.27 0.23 0.18
0.27 0.41 0.48 0.78 1.06 1.17 0.91 0.67 0.40 0.37 0.39 0.29 0.16 0.15 0.16 0.18 0.19 0.19 0.18 0.16 0.09 0.07
0.39 0.58 0.91 0.86 1.16 0.89 0.61 0.34 0.16 0.16 0.20 0.18 0.19 0.24 0.24 0.21 0.16 0.13 0.10 0.07 0.06 0.04
1.04 1.21 1.10 1.34 1.84 1.01 0.37 0.23 0.16 0.19 0.16 0.16 0.18 0.18 0.15 0.12 0.09 0.06 0.05 0.04 0.03 0.02
1.44 0.94 0.51 0.37 0.29 0.17 0.13 0.11 0.09 0.08 0.10 0.10 0.10 0.14 0.15 0.11 0.08 0.05 0.03 0.01 0.01 0.01
0.60 0.56 0.26 0.18 0.12 0.09 0.08 0.07 0.05 0.05 0.05 0.08 0.11 0.11 0.08 0.05 0.02 0.01 0.01 0.00 0.00 0.00
0.16 0.16 0.13 0.13 0.09 0.10 0.05 0.04 0.02 0.04 0.08 0.07 0.06 0.05 0.03 0.01 0.00 0.00 0.00 0.00 0.00 0.00
0.07 0.09 0.10 0.08 0.08 0.03 0.02 0.04 0.08 0.11 0.08 0.06 0.04 0.05 0.02 0.00 0.00 0.00 0.00 0.00 0.00 0.00
0.07 0.05 0.04 0.05 0.05 0.06 0.14 0.17 0.15 0.15 0.11 0.04 0.01 0.01 0.00 0.00 0.00 0.00 0.00 0.00 0.00 0.00
0.05 0.03 0.04 0.09 0.16 0.22 0.19 0.17 0.11 0.03 0.01 0.01 0.00 0.00 0.00 0.00 0.00 0.00 0.00 0.00 0.00 0.00
0.02 0.05 0.13 0.23 0.26 0.17 0.07 0.01 0.00 0.00 0.00 0.01 0.00 0.00 0.00 0.00 0.00 0.01 0.01 0.00 0.00 0.01
0.13 0.27 0.29 0.20 0.04 0.00 0.00 0.00 0.00 0.00 0.00 0.00 0.01 0.01 0.00 0.01 0.02 0.02 0.02 0.02 0.01 0.01
0.22 0.10 0.03 0.00 0.00 0.00 0.00 0.00 0.00 0.01 0.01 0.01 0.01 0.01 0.00 0.01 0.02 0.05 0.07 0.04 0.03 0.05

GFSNIL_prec_precacc_069.txt.gz
Total_Precipitation_Accumulation
0.25 0.31 0.37 0.36 0.31 0.19 0.21 0.24 0.39 0.52 0.55 0.47 0.35 0.33 0.35 0.37 0.38 0.32 0.28 0.30 0.31 0.29
0.37 0.40 0.30 0.35 0.57 0.42 0.37 0.28 0.39 0.49 0.40 0.40 0.36 0.39 0.35 0.25 0.21 0.23 0.29 0.28 0.26 0.21
0.27 0.41 0.48 0.80 1.09 1.22 0.99 0.76 0.49 0.51 0.47 0.34 0.24 0.23 0.20 0.19 0.19 0.19 0.18 0.16 0.10 0.07
0.39 0.58 0.91 0.87 1.17 0.94 0.89 0.95 0.79 0.50 0.42 0.23 0.27 0.30 0.26 0.21 0.16 0.13 0.10 0.07 0.07 0.04
1.05 1.21 1.11 1.37 1.94 1.33 0.97 0.70 0.48 0.31 0.19 0.18 0.19 0.18 0.15 0.12 0.10 0.07 0.05 0.05 0.04 0.03
1.49 0.97 0.59 0.44 0.36 0.31 0.23 0.15 0.10 0.09 0.12 0.14 0.13 0.16 0.17 0.14 0.09 0.06 0.04 0.03 0.03 0.03
0.61 0.60 0.38 0.30 0.22 0.14 0.13 0.13 0.07 0.08 0.09 0.10 0.12 0.13 0.11 0.07 0.03 0.01 0.01 0.00 0.00 0.00
0.19 0.18 0.16 0.15 0.10 0.11 0.05 0.05 0.05 0.07 0.12 0.09 0.07 0.07 0.05 0.02 0.01 0.01 0.01 0.01 0.01 0.00
0.08 0.10 0.11 0.10 0.12 0.05 0.04 0.07 0.11 0.14 0.12 0.08 0.05 0.08 0.04 0.01 0.00 0.00 0.00 0.00 0.00 0.00
0.10 0.07 0.06 0.06 0.07 0.08 0.16 0.19 0.18 0.17 0.12 0.05 0.02 0.03 0.01 0.00 0.00 0.00 0.00 0.00 0.00 0.00
0.08 0.06 0.06 0.11 0.17 0.23 0.22 0.20 0.13 0.05 0.02 0.01 0.01 0.01 0.00 0.00 0.00 0.00 0.00 0.00 0.00 0.00
0.04 0.07 0.15 0.26 0.30 0.19 0.09 0.04 0.02 0.02 0.01 0.01 0.01 0.00 0.00 0.00 0.00 0.01 0.01 0.00 0.00 0.01
0.13 0.28 0.31 0.22 0.06 0.01 0.01 0.02 0.01 0.00 0.00 0.01 0.01 0.01 0.00 0.01 0.02 0.02 0.02 0.02 0.01 0.01
0.22 0.11 0.03 0.01 0.01 0.01 0.01 0.01 0.00 0.01 0.01 0.01 0.01 0.01 0.00 0.01 0.02 0.05 0.07 0.04 0.03 0.05

GFSNIL_prec_precacc_072.txt.gz
Total_Precipitation_Accumulation
0.25 0.31 0.37 0.36 0.31 0.19 0.21 0.24 0.39 0.52 0.55 0.47 0.35 0.33 0.38 0.41 0.44 0.43 0.36 0.33 0.33 0.31
0.37 0.40 0.30 0.35 0.57 0.42 0.37 0.28 0.39 0.49 0.40 0.40 0.36 0.40 0.52 0.50 0.39 0.30 0.29 0.29 0.28 0.23
0.27 0.41 0.48 0.80 1.09 1.22 0.99 0.77 0.49 0.53 0.52 0.38 0.25 0.24 0.25 0.27 0.25 0.21 0.18 0.16 0.11 0.08
0.39 0.58 0.91 0.87 1.17 0.94 0.90 0.96 0.82 0.62 0.62 0.52 0.42 0.37 0.32 0.27 0.22 0.16 0.11 0.07 0.07 0.04
1.05 1.21 1.11 1.37 1.94 1.33 0.97 0.72 0.50 0.36 0.27 0.26 0.29 0.27 0.20 0.15 0.13 0.10 0.07 0.05 0.04 0.03
1.49 0.97 0.59 0.44 0.36 0.32 0.25 0.19 0.12 0.10 0.13 0.14 0.14 0.18 0.18 0.17 0.14 0.10 0.07 0.04 0.04 0.04
0.62 0.60 0.38 0.30 0.25 0.26 0.24 0.22 0.14 0.13 0.13 0.13 0.13 0.13 0.12 0.10 0.07 0.05 0.05 0.03 0.01 0.01
0.21 0.18 0.16 0.16 0.12 0.13 0.07 0.06 0.08 0.12 0.18 0.15 0.09 0.09 0.07 0.04 0.04 0.05 0.06 0.04 0.01 0.00
0.14 0.16 0.13 0.12 0.14 0.08 0.07 0.10 0.13 0.15 0.14 0.11 0.08 0.15 0.08 0.04 0.02 0.02 0.03 0.01 0.01 0.00
0.13 0.11 0.12 0.09 0.11 0.17 0.23 0.26 0.22 0.21 0.16 0.10 0.06 0.09 0.04 0.05 0.02 0.03 0.02 0.02 0.01 0.00
0.09 0.09 0.08 0.13 0.19 0.27 0.29 0.27 0.17 0.09 0.06 0.05 0.05 0.06 0.03 0.03 0.01 0.02 0.01 0.01 0.00 0.00
0.05 0.08 0.16 0.28 0.33 0.22 0.13 0.08 0.05 0.05 0.04 0.04 0.06 0.06 0.03 0.01 0.01 0.01 0.01 0.00 0.01 0.01
0.13 0.28 0.32 0.23 0.07 0.02 0.02 0.04 0.04 0.04 0.03 0.06 0.05 0.06 0.02 0.01 0.02 0.02 0.02 0.02 0.01 0.01
0.22 0.11 0.04 0.01 0.02 0.02 0.03 0.03 0.04 0.04 0.03 0.04 0.04 0.03 0.02 0.01 0.02 0.05 0.07 0.04 0.03 0.05

GFSNIL_prec_precacc_075.txt.gz
Total_Precipitation_Accumulation
0.25 0.31 0.37 0.36 0.31 0.19 0.21 0.24 0.39 0.52 0.55 0.47 0.35 0.33 0.38 0.41 0.44 0.44 0.38 0.35 0.34 0.32
0.37 0.40 0.30 0.35 0.57 0.42 0.37 0.28 0.39 0.49 0.40 0.40 0.36 0.40 0.52 0.50 0.40 0.32 0.32 0.30 0.29 0.26
0.27 0.41 0.48 0.80 1.09 1.22 0.99 0.77 0.49 0.53 0.52 0.38 0.25 0.24 0.25 0.28 0.27 0.26 0.22 0.19 0.13 0.10
0.39 0.58 0.91 0.87 1.17 0.94 0.90 0.96 0.82 0.62 0.63 0.56 0.49 0.45 0.39 0.32 0.26 0.21 0.15 0.10 0.10 0.07
1.05 1.21 1.11 1.37 1.94 1.33 0.97 0.72 0.50 0.36 0.28 0.29 0.34 0.36 0.30 0.22 0.17 0.16 0.14 0.13 0.12 0.08
1.49 0.97 0.59 0.44 0.36 0.32 0.25 0.19 0.12 0.10 0.13 0.15 0.14 0.20 0.27 0.29 0.27 0.22 0.14 0.12 0.11 0.10
0.62 0.61 0.38 0.30 0.25 0.26 0.24 0.22 0.15 0.13 0.14 0.14 0.14 0.14 0.12 0.11 0.08 0.08 0.08 0.08 0.09 0.08
0.23 0.18 0.16 0.16 0.12 0.13 0.07 0.06 0.08 0.12 0.19 0.18 0.12 0.12 0.11 0.07 0.05 0.06 0.08 0.07 0.06 0.05
0.14 0.16 0.13 0.12 0.14 0.08 0.07 0.10 0.14 0.16 0.15 0.12 0.10 0.17 0.11 0.06 0.03 0.04 0.05 0.04 0.04 0.06
0.13 0.11 0.12 0.10 0.11 0.18 0.24 0.27 0.23 0.23 0.17 0.10 0.07 0.13 0.07 0.07 0.03 0.05 0.04 0.04 0.03 0.02
0.09 0.09 0.08 0.14 0.20 0.28 0.30 0.28 0.19 0.11 0.09 0.09 0.11 0.12 0.06 0.05 0.01 0.03 0.03 0.03 0.03 0.02
0.05 0.08 0.16 0.28 0.33 0.22 0.14 0.10 0.07 0.06 0.05 0.07 0.10 0.11 0.06 0.05 0.04 0.06 0.06 0.05 0.04 0.02
0.13 0.28 0.32 0.23 0.07 0.03 0.04 0.06 0.06 0.06 0.05 0.10 0.08 0.13 0.09 0.08 0.08 0.10 0.08 0.04 0.02 0.03
0.23 0.12 0.06 0.03 0.02 0.03 0.04 0.05 0.05 0.05 0.06 0.09 0.11 0.12 0.12 0.11 0.09 0.12 0.09 0.04 0.03 0.05

GFSNIL_prec_precacc_078.txt.gz
Total_Precipitation_Accumulation
0.25 0.31 0.37 0.36 0.31 0.19 0.21 0.24 0.39 0.53 0.56 0.47 0.37 0.36 0.42 0.45 0.47 0.45 0.39 0.35 0.34 0.32
0.37 0.40 0.30 0.35 0.57 0.42 0.37 0.28 0.39 0.50 0.40 0.40 0.36 0.40 0.53 0.51 0.41 0.33 0.32 0.30 0.29 0.26
0.27 0.41 0.48 0.80 1.09 1.22 0.99 0.77 0.49 0.53 0.52 0.38 0.25 0.24 0.25 0.28 0.27 0.26 0.23 0.20 0.14 0.11
0.39 0.58 0.91 0.87 1.17 0.94 0.90 0.96 0.82 0.62 0.63 0.56 0.49 0.45 0.39 0.32 0.26 0.21 0.17 0.13 0.12 0.11
1.05 1.21 1.11 1.37 1.94 1.33 0.97 0.72 0.50 0.36 0.28 0.29 0.34 0.36 0.30 0.23 0.19 0.18 0.17 0.19 0.24 0.25
1.49 0.97 0.59 0.44 0.36 0.32 0.25 0.19 0.12 0.10 0.13 0.15 0.14 0.20 0.27 0.30 0.28 0.27 0.24 0.23 0.26 0.29
0.62 0.61 0.38 0.30 0.25 0.26 0.24 0.22 0.15 0.13 0.14 0.14 0.14 0.14 0.12 0.11 0.09 0.09 0.13 0.17 0.19 0.19
0.23 0.18 0.16 0.16 0.12 0.13 0.07 0.06 0.08 0.12 0.19 0.18 0.14 0.14 0.12 0.08 0.07 0.07 0.08 0.07 0.06 0.05
0.14 0.16 0.13 0.12 0.14 0.08 0.07 0.10 0.14 0.16 0.15 0.12 0.10 0.17 0.11 0.06 0.04 0.04 0.06 0.05 0.05 0.07
0.13 0.11 0.12 0.10 0.12 0.19 0.26 0.27 0.23 0.23 0.18 0.11 0.08 0.13 0.07 0.08 0.04 0.06 0.07 0.07 0.06 0.05
0.09 0.09 0.08 0.14 0.20 0.28 0.31 0.29 0.20 0.12 0.11 0.11 0.11 0.14 0.08 0.09 0.03 0.04 0.05 0.06 0.06 0.06
0.05 0.08 0.16 0.28 0.33 0.22 0.14 0.10 0.08 0.08 0.07 0.08 0.11 0.16 0.10 0.09 0.05 0.08 0.09 0.09 0.12 0.14
0.13 0.28 0.32 0.23 0.07 0.03 0.04 0.07 0.06 0.06 0.06 0.14 0.10 0.19 0.12 0.10 0.08 0.11 0.13 0.12 0.12 0.14
0.23 0.12 0.06 0.05 0.04 0.04 0.04 0.05 0.06 0.06 0.07 0.10 0.13 0.15 0.15 0.14 0.10 0.13 0.16 0.12 0.11 0.12

GFSNIL_prec_precacc_084.txt.gz
Total_Precipitation_Accumulation
0.26 0.31 0.37 0.36 0.31 0.19 0.21 0.24 0.39 0.53 0.56 0.47 0.37 0.37 0.48 0.57 0.55 0.57 0.48 0.47 0.43 0.38
0.38 0.40 0.31 0.35 0.58 0.42 0.37 0.28 0.39 0.50 0.40 0.40 0.37 0.40 0.55 0.61 0.47 0.39 0.39 0.38 0.39 0.33
0.27 0.41 0.48 0.80 1.10 1.22 0.99 0.77 0.49 0.53 0.52 0.39 0.25 0.24 0.26 0.30 0.31 0.31 0.28 0.28 0.21 0.18
0.39 0.58 0.92 0.88 1.17 0.94 0.90 0.96 0.82 0.62 0.63 0.56 0.50 0.46 0.40 0.33 0.27 0.24 0.20 0.17 0.17 0.14
1.05 1.21 1.11 1.38 1.94 1.33 0.98 0.72 0.50 0.36 0.28 0.29 0.34 0.37 0.30 0.24 0.19 0.18 0.18 0.20 0.26 0.26
1.49 0.97 0.59 0.44 0.37 0.33 0.25 0.19 0.12 0.10 0.13 0.15 0.14 0.20 0.27 0.30 0.28 0.27 0.24 0.24 0.27 0.30
0.63 0.61 0.38 0.30 0.25 0.26 0.24 0.22 0.15 0.13 0.14 0.14 0.14 0.14 0.12 0.11 0.09 0.09 0.13 0.17 0.20 0.19
0.23 0.18 0.16 0.16 0.12 0.13 0.07 0.06 0.08 0.12 0.19 0.18 0.14 0.14 0.12 0.08 0.07 0.07 0.08 0.08 0.07 0.05
0.14 0.16 0.13 0.13 0.15 0.08 0.07 0.10 0.14 0.16 0.15 0.12 0.10 0.17 0.11 0.06 0.04 0.04 0.06 0.05 0.05 0.07
0.13 0.11 0.12 0.10 0.12 0.19 0.29 0.28 0.23 0.23 0.18 0.11 0.08 0.13 0.08 0.08 0.04 0.06 0.07 0.07 0.06 0.06
0.09 0.09 0.08 0.14 0.20 0.28 0.32 0.31 0.22 0.14 0.12 0.11 0.11 0.14 0.09 0.11 0.04 0.04 0.05 0.06 0.06 0.08
0.05 0.08 0.16 0.28 0.33 0.22 0.14 0.10 0.08 0.11 0.10 0.10 0.13 0.19 0.13 0.11 0.06 0.09 0.10 0.10 0.15 0.20
0.13 0.28 0.32 0.23 0.07 0.03 0.04 0.07 0.06 0.07 0.08 0.16 0.12 0.24 0.16 0.14 0.10 0.13 0.16 0.16 0.19 0.34
0.23 0.12 0.06 0.05 0.04 0.04 0.04 0.05 0.07 0.08 0.08 0.13 0.18 0.22 0.22 0.19 0.13 0.16 0.23 0.23 0.24 0.31

GFSNIL_prec_precacc_087.txt.gz
Total_Precipitation_Accumulation
0.26 0.31 0.37 0.36 0.31 0.19 0.21 0.24 0.39 0.53 0.56 0.47 0.37 0.37 0.48 0.59 0.57 0.60 0.51 0.49 0.44 0.39
0.38 0.40 0.31 0.35 0.58 0.42 0.37 0.28 0.39 0.50 0.40 0.40 0.37 0.40 0.56 0.62 0.47 0.39 0.40 0.38 0.39 0.33
0.27 0.41 0.48 0.80 1.10 1.22 0.99 0.77 0.49 0.53 0.52 0.39 0.25 0.24 0.26 0.30 0.31 0.31 0.29 0.29 0.21 0.18
0.40 0.58 0.92 0.88 1.17 0.94 0.90 0.96 0.82 0.62 0.63 0.56 0.50 0.46 0.40 0.33 0.27 0.24 0.20 0.17 0.17 0.14
1.05 1.21 1.11 1.38 1.94 1.33 0.98 0.72 0.50 0.36 0.28 0.29 0.34 0.37 0.30 0.24 0.19 0.18 0.18 0.20 0.26 0.26
1.49 0.97 0.59 0.44 0.37 0.33 0.25 0.19 0.12 0.10 0.13 0.15 0.14 0.20 0.27 0.30 0.28 0.27 0.24 0.24 0.27 0.30
0.63 0.61 0.38 0.30 0.25 0.26 0.24 0.22 0.15 0.13 0.14 0.14 0.14 0.14 0.12 0.11 0.09 0.09 0.13 0.17 0.20 0.19
0.23 0.18 0.16 0.16 0.12 0.13 0.07 0.06 0.08 0.12 0.19 0.18 0.14 0.14 0.12 0.08 0.07 0.07 0.08 0.08 0.07 0.05
0.14 0.16 0.13 0.13 0.15 0.08 0.07 0.10 0.14 0.16 0.15 0.12 0.10 0.17 0.11 0.06 0.04 0.04 0.06 0.05 0.05 0.07
0.14 0.11 0.12 0.10 0.12 0.19 0.29 0.29 0.23 0.24 0.18 0.11 0.08 0.13 0.08 0.08 0.04 0.06 0.07 0.07 0.06 0.06
0.10 0.11 0.12 0.14 0.20 0.28 0.32 0.31 0.22 0.14 0.13 0.11 0.12 0.14 0.09 0.11 0.04 0.04 0.06 0.06 0.06 0.08
0.06 0.11 0.20 0.29 0.33 0.22 0.14 0.10 0.08 0.11 0.10 0.10 0.14 0.19 0.13 0.12 0.06 0.09 0.10 0.10 0.15 0.20
0.18 0.33 0.36 0.26 0.08 0.03 0.05 0.07 0.06 0.08 0.08 0.17 0.13 0.24 0.17 0.15 0.10 0.13 0.17 0.17 0.20 0.38
0.26 0.18 0.11 0.09 0.07 0.07 0.09 0.09 0.08 0.08 0.09 0.13 0.20 0.24 0.27 0.21 0.15 0.17 0.24 0.25 0.27 0.36

GFSNIL_prec_precacc_090.txt.gz
Total_Precipitation_Accumulation
0.26 0.31 0.37 0.36 0.31 0.19 0.21 0.24 0.39 0.53 0.56 0.47 0.37 0.37 0.48 0.59 0.57 0.60 0.52 0.50 0.46 0.40
0.38 0.40 0.31 0.35 0.58 0.42 0.37 0.28 0.39 0.50 0.40 0.40 0.37 0.40 0.56 0.62 0.47 0.39 0.40 0.39 0.39 0.33
0.27 0.41 0.48 0.80 1.10 1.22 0.99 0.77 0.49 0.53 0.52 0.39 0.25 0.24 0.26 0.30 0.31 0.31 0.29 0.29 0.22 0.18
0.40 0.58 0.92 0.88 1.17 0.94 0.90 0.96 0.82 0.62 0.63 0.56 0.50 0.46 0.40 0.33 0.27 0.24 0.20 0.17 0.17 0.14
1.05 1.21 1.11 1.38 1.94 1.33 0.98 0.72 0.50 0.36 0.28 0.29 0.34 0.37 0.30 0.24 0.19 0.18 0.18 0.20 0.26 0.26
1.49 0.97 0.59 0.44 0.37 0.33 0.25 0.19 0.12 0.10 0.13 0.15 0.14 0.20 0.27 0.30 0.28 0.27 0.24 0.24 0.27 0.30
0.63 0.61 0.38 0.30 0.25 0.26 0.24 0.22 0.15 0.13 0.14 0.14 0.14 0.14 0.12 0.11 0.09 0.09 0.13 0.17 0.20 0.19
0.23 0.18 0.16 0.16 0.12 0.13 0.07 0.06 0.08 0.12 0.19 0.18 0.14 0.14 0.12 0.08 0.07 0.07 0.08 0.08 0.07 0.05
0.15 0.18 0.15 0.14 0.15 0.08 0.07 0.10 0.14 0.16 0.15 0.13 0.11 0.17 0.11 0.06 0.04 0.04 0.06 0.05 0.05 0.07
0.20 0.16 0.16 0.16 0.15 0.20 0.30 0.29 0.23 0.24 0.18 0.11 0.08 0.14 0.08 0.08 0.04 0.06 0.07 0.07 0.06 0.06
0.16 0.16 0.17 0.18 0.23 0.31 0.34 0.32 0.23 0.14 0.13 0.11 0.12 0.15 0.10 0.11 0.04 0.04 0.06 0.06 0.06 0.08
0.12 0.19 0.29 0.36 0.38 0.25 0.16 0.14 0.11 0.14 0.13 0.11 0.14 0.20 0.15 0.13 0.06 0.09 0.10 0.10 0.15 0.20
0.21 0.38 0.43 0.36 0.18 0.11 0.10 0.14 0.14 0.13 0.10 0.19 0.15 0.27 0.19 0.16 0.11 0.14 0.18 0.17 0.20 0.39
0.26 0.19 0.14 0.16 0.15 0.14 0.18 0.18 0.14 0.10 0.10 0.15 0.23 0.27 0.30 0.23 0.16 0.18 0.26 0.28 0.30 0.39

GFSNIL_prec_precacc_096.txt.gz
Total_Precipitation_Accumulation
0.26 0.31 0.37 0.36 0.31 0.20 0.21 0.24 0.39 0.53 0.57 0.49 0.40 0.44 0.61 0.67 0.63 0.65 0.54 0.51 0.46 0.40
0.38 0.40 0.31 0.35 0.58 0.42 0.37 0.28 0.39 0.50 0.40 0.40 0.37 0.42 0.58 0.64 0.48 0.40 0.40 0.39 0.39 0.33
0.27 0.41 0.48 0.80 1.10 1.22 0.99 0.77 0.49 0.53 0.52 0.39 0.25 0.25 0.28 0.32 0.31 0.31 0.29 0.30 0.22 0.19
0.40 0.58 0.92 0.88 1.17 0.94 0.90 0.96 0.82 0.62 0.63 0.56 0.50 0.46 0.40 0.34 0.29 0.25 0.20 0.17 0.18 0.14
1.05 1.21 1.11 1.38 1.94 1.33 0.98 0.72 0.50 0.36 0.28 0.29 0.34 0.37 0.30 0.24 0.19 0.19 0.19 0.20 0.26 0.26
1.49 0.97 0.59 0.44 0.37 0.33 0.25 0.19 0.12 0.10 0.13 0.15 0.14 0.20 0.27 0.30 0.28 0.27 0.24 0.24 0.27 0.30
0.63 0.61 0.38 0.30 0.25 0.26 0.24 0.22 0.15 0.13 0.14 0.14 0.14 0.14 0.12 0.11 0.09 0.09 0.13 0.17 0.20 0.19
0.26 0.20 0.16 0.16 0.12 0.13 0.07 0.06 0.08 0.12 0.19 0.18 0.14 0.14 0.12 0.08 0.07 0.07 0.08 0.08 0.07 0.05
0.23 0.24 0.18 0.16 0.17 0.08 0.07 0.10 0.14 0.16 0.15 0.13 0.11 0.17 0.11 0.06 0.04 0.04 0.06 0.05 0.05 0.07
0.25 0.22 0.23 0.22 0.19 0.27 0.36 0.31 0.26 0.26 0.18 0.11 0.08 0.14 0.08 0.08 0.04 0.06 0.07 0.07 0.06 0.06
0.17 0.18 0.20 0.23 0.29 0.38 0.42 0.38 0.28 0.22 0.24 0.19 0.18 0.20 0.12 0.13 0.05 0.05 0.06 0.06 0.06 0.08
0.13 0.20 0.30 0.38 0.40 0.29 0.21 0.19 0.19 0.25 0.27 0.22 0.24 0.36 0.22 0.16 0.10 0.15 0.14 0.11 0.16 0.21
0.21 0.38 0.43 0.36 0.21 0.16 0.13 0.16 0.19 0.22 0.23 0.33 0.23 0.42 0.32 0.25 0.19 0.24 0.24 0.22 0.26 0.54
0.26 0.19 0.14 0.16 0.15 0.15 0.20 0.22 0.23 0.23 0.22 0.25 0.33 0.36 0.41 0.33 0.27 0.36 0.45 0.45 0.42 0.50

GFSNIL_prec_precacc_099.txt.gz
Total_Precipitation_Accumulation
0.26 0.31 0.37 0.36 0.31 0.20 0.21 0.24 0.39 0.53 0.58 0.49 0.42 0.48 0.68 0.78 0.68 0.70 0.61 0.57 0.52 0.44
0.38 0.40 0.31 0.35 0.58 0.42 0.37 0.28 0.39 0.50 0.41 0.41 0.37 0.43 0.60 0.66 0.51 0.44 0.47 0.45 0.44 0.36
0.27 0.41 0.48 0.80 1.10 1.22 0.99 0.77 0.49 0.53 0.53 0.39 0.26 0.25 0.29 0.32 0.32 0.32 0.32 0.33 0.25 0.20
0.40 0.58 0.92 0.88 1.17 0.94 0.90 0.96 0.82 0.62 0.63 0.56 0.50 0.46 0.40 0.34 0.29 0.25 0.20 0.17 0.18 0.14
1.05 1.21 1.11 1.38 1.94 1.33 0.98 0.72 0.50 0.36 0.28 0.30 0.34 0.37 0.30 0.24 0.19 0.19 0.19 0.20 0.26 0.26
1.49 0.97 0.59 0.44 0.37 0.33 0.25 0.19 0.12 0.10 0.13 0.15 0.15 0.20 0.27 0.30 0.28 0.27 0.25 0.25 0.28 0.30
0.63 0.61 0.38 0.30 0.25 0.26 0.24 0.22 0.15 0.13 0.14 0.14 0.14 0.14 0.12 0.12 0.09 0.09 0.13 0.17 0.21 0.20
0.27 0.20 0.16 0.16 0.12 0.13 0.07 0.06 0.08 0.12 0.19 0.18 0.14 0.14 0.12 0.08 0.07 0.07 0.08 0.08 0.07 0.05
0.25 0.25 0.18 0.16 0.17 0.08 0.07 0.10 0.14 0.16 0.15 0.13 0.11 0.17 0.11 0.06 0.04 0.04 0.06 0.05 0.05 0.07
0.29 0.26 0.25 0.23 0.20 0.28 0.36 0.31 0.26 0.26 0.18 0.11 0.08 0.14 0.08 0.08 0.04 0.06 0.07 0.07 0.06 0.06
0.18 0.20 0.23 0.26 0.31 0.41 0.43 0.39 0.28 0.23 0.25 0.20 0.19 0.20 0.12 0.13 0.06 0.07 0.07 0.07 0.07 0.08
0.13 0.20 0.31 0.39 0.42 0.32 0.24 0.22 0.22 0.28 0.31 0.26 0.28 0.40 0.23 0.17 0.11 0.16 0.16 0.14 0.18 0.25
0.21 0.38 0.43 0.36 0.21 0.16 0.13 0.17 0.22 0.26 0.27 0.39 0.25 0.47 0.33 0.27 0.22 0.26 0.26 0.25 0.31 0.63
0.26 0.19 0.14 0.16 0.15 0.15 0.20 0.22 0.23 0.24 0.23 0.27 0.36 0.41 0.45 0.34 0.28 0.38 0.50 0.49 0.47 0.55

GFSNIL_prec_precacc_102.txt.gz
Total_Precipitation_Accumulation
0.26 0.31 0.37 0.36 0.31 0.20 0.21 0.24 0.40 0.56 0.61 0.50 0.42 0.49 0.71 0.85 0.87 0.85 0.72 0.61 0.53 0.45
0.38 0.40 0.31 0.35 0.58 0.42 0.37 0.28 0.40 0.51 0.43 0.42 0.38 0.44 0.61 0.67 0.54 0.48 0.52 0.48 0.46 0.39
0.27 0.41 0.48 0.80 1.10 1.22 0.99 0.77 0.50 0.54 0.53 0.40 0.27 0.26 0.29 0.33 0.34 0.36 0.37 0.38 0.31 0.26
0.40 0.58 0.92 0.88 1.17 0.94 0.90 0.96 0.82 0.62 0.63 0.56 0.50 0.46 0.41 0.34 0.30 0.27 0.22 0.21 0.23 0.19
1.05 1.21 1.11 1.38 1.94 1.33 0.98 0.72 0.50 0.36 0.28 0.30 0.34 0.37 0.30 0.24 0.19 0.19 0.19 0.21 0.27 0.27
1.49 0.97 0.59 0.44 0.37 0.33 0.25 0.19 0.12 0.10 0.13 0.15 0.15 0.20 0.27 0.30 0.28 0.27 0.25 0.25 0.28 0.30
0.63 0.61 0.38 0.30 0.25 0.26 0.24 0.22 0.15 0.13 0.14 0.14 0.14 0.14 0.12 0.12 0.09 0.09 0.13 0.18 0.21 0.20
0.28 0.20 0.16 0.16 0.12 0.13 0.07 0.06 0.08 0.12 0.19 0.18 0.15 0.14 0.12 0.08 0.07 0.07 0.08 0.08 0.07 0.06
0.28 0.26 0.19 0.16 0.17 0.08 0.07 0.10 0.14 0.16 0.16 0.13 0.11 0.17 0.11 0.06 0.04 0.04 0.06 0.05 0.05 0.07
0.32 0.30 0.30 0.27 0.21 0.28 0.36 0.32 0.26 0.26 0.18 0.11 0.08 0.14 0.08 0.08 0.04 0.07 0.07 0.07 0.06 0.06
0.21 0.22 0.25 0.29 0.34 0.45 0.45 0.39 0.29 0.23 0.25 0.21 0.21 0.22 0.13 0.14 0.06 0.07 0.07 0.07 0.08 0.11
0.22 0.25 0.33 0.40 0.43 0.33 0.25 0.23 0.24 0.30 0.33 0.29 0.30 0.43 0.24 0.18 0.11 0.16 0.16 0.18 0.25 0.29
0.27 0.42 0.44 0.37 0.22 0.16 0.14 0.18 0.23 0.27 0.29 0.43 0.27 0.49 0.34 0.27 0.22 0.28 0.29 0.27 0.33 0.69
0.27 0.20 0.14 0.16 0.15 0.15 0.20 0.22 0.23 0.24 0.23 0.27 0.37 0.44 0.46 0.34 0.29 0.39 0.51 0.50 0.48 0.59

GFSNIL_prec_precacc_105.txt.gz
Total_Precipitation_Accumulation
0.26 0.31 0.37 0.36 0.31 0.20 0.21 0.24 0.40 0.56 0.63 0.51 0.42 0.50 0.71 0.90 0.97 1.01 0.78 0.64 0.56 0.46
0.38 0.40 0.31 0.35 0.58 0.42 0.37 0.28 0.40 0.51 0.45 0.44 0.38 0.44 0.61 0.69 0.60 0.65 0.73 0.62 0.52 0.43
0.27 0.41 0.48 0.80 1.10 1.22 0.99 0.77 0.50 0.54 0.54 0.41 0.27 0.27 0.30 0.34 0.35 0.38 0.42 0.45 0.37 0.30
0.40 0.58 0.92 0.88 1.17 0.94 0.90 0.96 0.82 0.63 0.64 0.56 0.50 0.47 0.41 0.35 0.30 0.28 0.24 0.22 0.27 0.27
1.05 1.21 1.11 1.38 1.94 1.33 0.98 0.72 0.50 0.36 0.29 0.30 0.34 0.37 0.31 0.24 0.20 0.20 0.20 0.21 0.27 0.29
1.50 0.99 0.62 0.45 0.37 0.33 0.25 0.19 0.12 0.10 0.13 0.15 0.15 0.20 0.28 0.30 0.28 0.28 0.25 0.25 0.28 0.30
0.72 0.67 0.42 0.31 0.25 0.26 0.24 0.22 0.15 0.13 0.14 0.14 0.14 0.14 0.12 0.12 0.09 0.09 0.13 0.18 0.21 0.20
0.37 0.26 0.18 0.16 0.12 0.13 0.07 0.06 0.08 0.12 0.19 0.18 0.15 0.14 0.12 0.08 0.07 0.07 0.08 0.08 0.07 0.06
0.31 0.29 0.21 0.17 0.17 0.08 0.07 0.10 0.15 0.16 0.16 0.14 0.11 0.18 0.11 0.06 0.04 0.05 0.06 0.06 0.05 0.07
0.35 0.31 0.31 0.28 0.22 0.28 0.37 0.32 0.27 0.26 0.19 0.12 0.09 0.14 0.08 0.08 0.05 0.07 0.07 0.07 0.06 0.06
0.23 0.23 0.27 0.30 0.36 0.47 0.45 0.40 0.29 0.24 0.26 0.22 0.21 0.22 0.13 0.15 0.06 0.07 0.09 0.11 0.09 0.12
0.28 0.27 0.36 0.46 0.47 0.37 0.29 0.26 0.25 0.31 0.36 0.32 0.32 0.47 0.25 0.19 0.11 0.18 0.20 0.20 0.26 0.30
0.39 0.58 0.61 0.52 0.36 0.32 0.31 0.30 0.29 0.30 0.31 0.47 0.28 0.52 0.35 0.28 0.22 0.29 0.31 0.29 0.36 0.75
0.34 0.30 0.25 0.29 0.31 0.32 0.36 0.39 0.38 0.34 0.30 0.32 0.41 0.49 0.51 0.38 0.32 0.46 0.60 0.57 0.53 0.64

GFSNIL_prec_precacc_108.txt.gz
Total_Precipitation_Accumulation
0.26 0.31 0.37 0.36 0.31 0.20 0.21 0.24 0.40 0.57 0.65 0.52 0.42 0.50 0.72 0.91 0.99 1.04 0.81 0.66 0.56 0.47
0.38 0.40 0.31 0.35 0.58 0.42 0.37 0.28 0.40 0.51 0.46 0.46 0.39 0.44 0.62 0.69 0.61 0.67 0.78 0.71 0.59 0.47
0.27 0.42 0.48 0.80 1.10 1.22 0.99 0.77 0.50 0.54 0.55 0.43 0.28 0.27 0.30 0.34 0.35 0.41 0.49 0.63 0.60 0.44
0.40 0.59 0.92 0.88 1.17 0.94 0.90 0.96 0.82 0.63 0.64 0.57 0.51 0.47 0.42 0.35 0.30 0.29 0.25 0.26 0.33 0.34
1.06 1.22 1.12 1.39 1.94 1.33 0.98 0.72 0.50 0.36 0.29 0.30 0.34 0.37 0.31 0.24 0.20 0.20 0.20 0.21 0.27 0.29
1.52 1.03 0.65 0.49 0.38 0.33 0.26 0.19 0.12 0.10 0.14 0.15 0.15 0.20 0.28 0.31 0.29 0.28 0.25 0.25 0.28 0.30
0.75 0.69 0.47 0.38 0.25 0.28 0.25 0.22 0.15 0.13 0.14 0.14 0.15 0.14 0.12 0.12 0.09 0.09 0.14 0.18 0.21 0.20
0.41 0.29 0.24 0.22 0.15 0.16 0.07 0.06 0.08 0.12 0.20 0.18 0.15 0.15 0.12 0.08 0.07 0.08 0.08 0.08 0.07 0.06
0.39 0.34 0.27 0.21 0.20 0.09 0.07 0.11 0.15 0.16 0.16 0.15 0.11 0.18 0.11 0.07 0.05 0.05 0.06 0.06 0.05 0.08
0.44 0.37 0.36 0.31 0.23 0.29 0.37 0.33 0.27 0.27 0.19 0.12 0.09 0.14 0.09 0.08 0.05 0.10 0.10 0.09 0.07 0.08
0.33 0.32 0.33 0.33 0.38 0.48 0.46 0.41 0.30 0.24 0.26 0.22 0.21 0.23 0.13 0.15 0.06 0.07 0.10 0.12 0.10 0.14
0.46 0.43 0.49 0.53 0.50 0.39 0.32 0.27 0.26 0.32 0.36 0.32 0.32 0.47 0.26 0.19 0.11 0.18 0.21 0.21 0.26 0.31
0.86 0.93 0.94 0.81 0.56 0.44 0.43 0.45 0.42 0.38 0.36 0.51 0.30 0.55 0.36 0.29 0.23 0.30 0.32 0.30 0.36 0.78
0.79 0.74 0.64 0.73 0.64 0.60 0.70 0.72 0.75 0.74 0.57 0.51 0.56 0.59 0.62 0.51 0.44 0.57 0.69 0.67 0.63 0.77

GFSNIL_prec_precacc_111.txt.gz
Total_Precipitation_Accumulation
0.26 0.32 0.38 0.36 0.31 0.20 0.21 0.24 0.40 0.57 0.65 0.52 0.42 0.50 0.72 0.91 0.99 1.04 0.81 0.67 0.58 0.52
0.42 0.44 0.31 0.35 0.58 0.42 0.37 0.28 0.40 0.51 0.46 0.46 0.39 0.44 0.62 0.69 0.61 0.67 0.78 0.71 0.59 0.48
0.32 0.43 0.51 0.81 1.10 1.22 0.99 0.77 0.50 0.54 0.55 0.44 0.28 0.27 0.30 0.34 0.35 0.41 0.49 0.63 0.62 0.46
0.44 0.63 0.99 0.91 1.18 0.94 0.90 0.96 0.82 0.63 0.64 0.58 0.51 0.47 0.42 0.35 0.30 0.29 0.26 0.27 0.39 0.40
1.17 1.38 1.25 1.42 1.95 1.34 1.00 0.76 0.51 0.36 0.29 0.30 0.35 0.38 0.31 0.25 0.20 0.20 0.21 0.22 0.28 0.30
1.67 1.22 0.81 0.55 0.39 0.39 0.33 0.23 0.12 0.10 0.14 0.16 0.15 0.21 0.28 0.31 0.29 0.28 0.25 0.25 0.28 0.30
0.84 0.85 0.62 0.44 0.29 0.35 0.33 0.27 0.16 0.14 0.14 0.14 0.15 0.15 0.13 0.13 0.11 0.10 0.14 0.19 0.21 0.20
0.46 0.43 0.40 0.27 0.18 0.21 0.13 0.10 0.09 0.12 0.20 0.19 0.15 0.15 0.12 0.09 0.08 0.09 0.09 0.09 0.08 0.06
0.48 0.54 0.49 0.31 0.27 0.12 0.09 0.12 0.16 0.17 0.17 0.15 0.12 0.20 0.12 0.07 0.05 0.05 0.07 0.06 0.05 0.08
0.54 0.50 0.54 0.42 0.31 0.33 0.39 0.33 0.28 0.28 0.20 0.13 0.09 0.15 0.09 0.09 0.06 0.11 0.11 0.09 0.08 0.09
0.44 0.52 0.54 0.47 0.46 0.54 0.50 0.42 0.31 0.25 0.27 0.23 0.23 0.24 0.14 0.16 0.08 0.09 0.12 0.14 0.13 0.15
0.59 0.62 0.74 0.74 0.64 0.49 0.42 0.34 0.29 0.34 0.38 0.34 0.34 0.50 0.27 0.21 0.12 0.19 0.22 0.22 0.28 0.33
1.05 1.20 1.16 1.03 0.85 0.70 0.64 0.65 0.56 0.50 0.45 0.58 0.34 0.62 0.40 0.31 0.24 0.31 0.33 0.31 0.37 0.80
1.10 1.15 1.02 1.07 1.09 1.09 1.09 1.08 1.03 0.95 0.73 0.67 0.74 0.78 0.80 0.63 0.51 0.63 0.76 0.73 0.68 0.82

GFSNIL_prec_precacc_114.txt.gz
Total_Precipitation_Accumulation
0.27 0.35 0.38 0.36 0.31 0.20 0.22 0.26 0.40 0.57 0.65 0.52 0.42 0.50 0.72 0.91 0.99 1.04 0.81 0.67 0.59 0.54
0.42 0.45 0.33 0.36 0.58 0.43 0.38 0.28 0.40 0.51 0.46 0.46 0.39 0.44 0.62 0.70 0.61 0.68 0.78 0.71 0.59 0.48
0.32 0.45 0.55 0.82 1.10 1.23 1.00 0.77 0.50 0.54 0.55 0.44 0.28 0.27 0.30 0.34 0.36 0.41 0.49 0.63 0.62 0.46
0.46 0.68 1.06 0.95 1.19 0.96 0.92 0.98 0.85 0.63 0.64 0.58 0.52 0.47 0.42 0.35 0.30 0.29 0.26 0.27 0.39 0.41
1.25 1.49 1.34 1.52 2.00 1.36 1.02 0.78 0.52 0.37 0.29 0.31 0.36 0.38 0.31 0.25 0.20 0.20 0.21 0.22 0.28 0.31
1.75 1.35 0.98 0.72 0.49 0.45 0.40 0.28 0.15 0.13 0.15 0.16 0.16 0.22 0.29 0.31 0.30 0.28 0.25 0.25 0.29 0.31
0.91 0.97 0.79 0.64 0.43 0.47 0.42 0.31 0.18 0.15 0.16 0.15 0.16 0.16 0.15 0.15 0.12 0.10 0.14 0.19 0.22 0.21
0.48 0.49 0.52 0.44 0.33 0.31 0.22 0.16 0.14 0.15 0.21 0.20 0.16 0.17 0.16 0.11 0.10 0.09 0.10 0.10 0.09 0.07
0.50 0.56 0.58 0.44 0.45 0.27 0.19 0.17 0.19 0.20 0.18 0.16 0.12 0.22 0.14 0.10 0.07 0.07 0.08 0.07 0.06 0.09
0.57 0.59 0.64 0.58 0.48 0.50 0.51 0.39 0.31 0.30 0.21 0.13 0.09 0.16 0.10 0.10 0.07 0.12 0.11 0.10 0.08 0.09
0.50 0.62 0.76 0.71 0.69 0.75 0.66 0.48 0.33 0.26 0.27 0.23 0.24 0.26 0.15 0.17 0.08 0.10 0.12 0.15 0.13 0.16
0.68 0.76 0.88 1.00 0.94 0.80 0.70 0.56 0.40 0.38 0.40 0.35 0.36 0.54 0.32 0.22 0.12 0.20 0.24 0.24 0.30 0.35
1.27 1.37 1.41 1.28 1.19 1.12 0.94 0.88 0.77 0.62 0.54 0.67 0.37 0.69 0.51 0.41 0.26 0.32 0.34 0.34 0.41 0.85
1.23 1.30 1.20 1.32 1.33 1.48 1.63 1.52 1.39 1.26 1.02 0.93 1.01 1.04 1.05 0.89 0.69 0.75 0.80 0.75 0.70 0.85

GFSNIL_prec_precacc_117.txt.gz
Total_Precipitation_Accumulation
0.28 0.36 0.40 0.37 0.32 0.21 0.23 0.27 0.41 0.58 0.66 0.52 0.42 0.50 0.72 0.92 1.00 1.04 0.81 0.67 0.59 0.54
0.42 0.46 0.35 0.38 0.60 0.45 0.40 0.30 0.41 0.52 0.46 0.47 0.40 0.44 0.62 0.70 0.61 0.68 0.79 0.71 0.59 0.48
0.32 0.45 0.56 0.86 1.11 1.24 1.03 0.82 0.52 0.55 0.56 0.45 0.28 0.27 0.30 0.35 0.36 0.41 0.50 0.64 0.62 0.46
0.46 0.69 1.07 0.98 1.23 1.00 0.99 1.06 0.90 0.65 0.65 0.58 0.52 0.47 0.42 0.35 0.31 0.30 0.26 0.27 0.39 0.41
1.27 1.51 1.37 1.56 2.04 1.42 1.09 0.87 0.59 0.42 0.31 0.31 0.36 0.38 0.31 0.26 0.21 0.21 0.21 0.22 0.28 0.31
1.77 1.37 1.02 0.78 0.56 0.52 0.48 0.41 0.27 0.20 0.20 0.19 0.17 0.22 0.30 0.32 0.31 0.29 0.26 0.26 0.29 0.31
0.94 1.02 0.84 0.73 0.54 0.58 0.55 0.46 0.32 0.26 0.24 0.24 0.19 0.17 0.15 0.16 0.14 0.11 0.15 0.20 0.22 0.23
0.49 0.51 0.57 0.54 0.43 0.40 0.34 0.29 0.26 0.24 0.26 0.22 0.18 0.18 0.16 0.12 0.11 0.11 0.11 0.10 0.09 0.08
0.51 0.57 0.59 0.47 0.48 0.32 0.28 0.32 0.37 0.33 0.27 0.18 0.14 0.23 0.15 0.11 0.08 0.08 0.09 0.08 0.07 0.09
0.57 0.60 0.65 0.62 0.59 0.62 0.67 0.64 0.54 0.46 0.30 0.14 0.10 0.17 0.11 0.11 0.08 0.13 0.13 0.12 0.11 0.11
0.51 0.64 0.78 0.75 0.75 0.94 0.93 0.76 0.63 0.52 0.38 0.27 0.25 0.27 0.16 0.19 0.08 0.10 0.13 0.16 0.15 0.17
0.72 0.79 0.91 1.08 1.12 0.96 0.90 0.90 0.75 0.60 0.57 0.41 0.38 0.57 0.36 0.28 0.15 0.21 0.25 0.25 0.31 0.36
1.33 1.47 1.57 1.50 1.38 1.46 1.44 1.31 1.23 1.12 0.90 0.86 0.46 0.78 0.60 0.49 0.32 0.38 0.40 0.38 0.43 0.88
1.27 1.37 1.31 1.48 1.57 1.71 1.93 2.02 1.80 1.60 1.28 1.12 1.17 1.19 1.22 1.12 0.93 0.99 0.96 0.86 0.79 0.93

GFSNIL_prec_precacc_120.txt.gz
Total_Precipitation_Accumulation
0.30 0.37 0.41 0.37 0.34 0.24 0.34 0.35 0.44 0.61 0.67 0.53 0.45 0.52 0.73 0.92 1.00 1.05 0.81 0.68 0.59 0.55
0.43 0.47 0.35 0.40 0.65 0.46 0.42 0.33 0.44 0.56 0.48 0.49 0.44 0.48 0.63 0.71 0.62 0.68 0.79 0.71 0.60 0.48
0.32 0.45 0.56 0.87 1.12 1.26 1.09 0.89 0.56 0.59 0.58 0.47 0.31 0.31 0.32 0.35 0.37 0.42 0.50 0.64 0.62 0.47
0.46 0.69 1.07 0.98 1.25 1.06 1.05 1.11 0.95 0.72 0.69 0.60 0.54 0.49 0.43 0.36 0.32 0.30 0.27 0.28 0.40 0.41
1.27 1.51 1.38 1.57 2.06 1.45 1.11 0.91 0.66 0.50 0.35 0.32 0.38 0.40 0.32 0.26 0.21 0.21 0.21 0.22 0.28 0.31
1.79 1.39 1.03 0.80 0.58 0.56 0.51 0.44 0.34 0.27 0.24 0.22 0.21 0.25 0.31 0.33 0.31 0.29 0.26 0.26 0.29 0.31
0.94 1.03 0.86 0.75 0.56 0.61 0.58 0.50 0.38 0.34 0.32 0.33 0.27 0.22 0.19 0.17 0.14 0.11 0.15 0.20 0.23 0.23
0.49 0.52 0.58 0.58 0.48 0.47 0.41 0.38 0.34 0.31 0.34 0.33 0.27 0.26 0.20 0.13 0.11 0.11 0.11 0.11 0.09 0.08
0.51 0.57 0.59 0.47 0.49 0.34 0.30 0.36 0.47 0.55 0.50 0.36 0.26 0.34 0.21 0.13 0.09 0.08 0.10 0.09 0.08 0.10
0.57 0.60 0.65 0.62 0.59 0.62 0.68 0.66 0.57 0.55 0.51 0.56 0.57 0.56 0.33 0.21 0.10 0.14 0.14 0.12 0.12 0.11
0.52 0.64 0.78 0.75 0.76 0.94 0.94 0.81 0.73 0.70 0.60 0.45 0.48 0.54 0.32 0.29 0.11 0.11 0.14 0.19 0.17 0.19
0.73 0.79 0.92 1.09 1.13 0.97 0.92 0.96 0.95 0.95 0.98 0.81 0.63 0.74 0.53 0.40 0.18 0.24 0.27 0.27 0.33 0.39
1.33 1.47 1.57 1.51 1.39 1.47 1.45 1.34 1.28 1.25 1.17 1.29 0.87 1.15 0.92 0.69 0.42 0.44 0.42 0.40 0.46 0.93
1.27 1.37 1.31 1.49 1.58 1.72 1.96 2.08 1.97 1.83 1.56 1.41 1.49 1.55 1.61 1.51 1.21 1.19 1.09 0.95 0.87 1.02

GFSNIL_prec_precacc_123.txt.gz
Total_Precipitation_Accumulation
0.31 0.39 0.42 0.38 0.37 0.28 0.41 0.37 0.49 0.65 0.71 0.54 0.45 0.53 0.75 0.96 1.01 1.05 0.82 0.68 0.60 0.55
0.45 0.48 0.36 0.42 0.68 0.48 0.44 0.41 0.54 0.58 0.50 0.50 0.45 0.50 0.67 0.74 0.64 0.69 0.80 0.71 0.60 0.49
0.33 0.45 0.57 0.88 1.14 1.27 1.13 0.94 0.62 0.62 0.60 0.47 0.31 0.33 0.34 0.37 0.39 0.43 0.52 0.65 0.62 0.47
0.46 0.69 1.07 0.98 1.25 1.07 1.07 1.19 1.01 0.78 0.74 0.62 0.57 0.53 0.47 0.37 0.33 0.31 0.28 0.29 0.40 0.42
1.27 1.51 1.38 1.57 2.07 1.46 1.12 0.92 0.71 0.58 0.42 0.37 0.41 0.43 0.37 0.28 0.23 0.23 0.23 0.25 0.29 0.32
1.79 1.39 1.04 0.81 0.59 0.57 0.53 0.47 0.36 0.30 0.28 0.26 0.24 0.28 0.34 0.39 0.33 0.31 0.28 0.28 0.30 0.32
0.94 1.04 0.86 0.76 0.57 0.62 0.60 0.53 0.42 0.37 0.36 0.37 0.31 0.26 0.24 0.22 0.17 0.15 0.17 0.20 0.23 0.24
0.49 0.52 0.58 0.58 0.49 0.47 0.43 0.40 0.36 0.33 0.38 0.39 0.37 0.37 0.28 0.18 0.15 0.16 0.15 0.12 0.10 0.08
0.51 0.57 0.59 0.47 0.49 0.34 0.31 0.38 0.51 0.62 0.66 0.57 0.40 0.45 0.27 0.18 0.11 0.10 0.13 0.12 0.09 0.10
0.57 0.60 0.65 0.62 0.59 0.62 0.68 0.66 0.57 0.57 0.57 0.73 0.79 0.86 0.74 0.61 0.40 0.38 0.33 0.20 0.14 0.12
0.52 0.64 0.78 0.75 0.76 0.94 0.94 0.81 0.73 0.70 0.62 0.48 0.53 0.67 0.66 0.76 0.71 0.78 0.68 0.42 0.21 0.19
0.73 0.79 0.92 1.09 1.13 0.97 0.92 0.97 0.96 0.95 0.99 0.83 0.68 0.85 0.65 0.60 0.40 0.48 0.48 0.39 0.38 0.43
1.33 1.47 1.57 1.51 1.39 1.47 1.45 1.34 1.28 1.25 1.18 1.31 0.96 1.35 1.18 1.07 0.86 0.85 0.78 0.61 0.56 1.01
1.27 1.37 1.31 1.49 1.58 1.72 1.96 2.08 1.97 1.83 1.56 1.41 1.50 1.59 1.70 1.71 1.52 1.51 1.39 1.16 1.02 1.14

GFSNIL_prec_precacc_126.txt.gz
Total_Precipitation_Accumulation
0.33 0.40 0.44 0.40 0.39 0.31 0.43 0.40 0.53 0.68 0.82 0.68 0.53 0.54 0.76 0.96 1.03 1.06 0.82 0.68 0.60 0.56
0.47 0.51 0.39 0.44 0.70 0.51 0.47 0.44 0.58 0.63 0.57 0.64 0.54 0.54 0.69 0.76 0.67 0.71 0.81 0.72 0.60 0.49
0.33 0.45 0.57 0.89 1.15 1.29 1.14 0.97 0.65 0.64 0.66 0.54 0.38 0.37 0.37 0.39 0.40 0.44 0.54 0.67 0.64 0.47
0.46 0.69 1.07 0.98 1.25 1.07 1.07 1.20 1.04 0.81 0.79 0.65 0.59 0.54 0.49 0.39 0.34 0.32 0.31 0.33 0.44 0.45
1.28 1.51 1.38 1.57 2.07 1.46 1.12 0.92 0.72 0.62 0.48 0.44 0.46 0.46 0.38 0.29 0.23 0.25 0.28 0.31 0.34 0.35
1.80 1.39 1.04 0.81 0.59 0.57 0.53 0.47 0.36 0.31 0.30 0.30 0.30 0.34 0.39 0.44 0.40 0.37 0.34 0.33 0.34 0.35
0.94 1.04 0.86 0.76 0.57 0.63 0.61 0.54 0.43 0.40 0.38 0.39 0.35 0.30 0.28 0.26 0.21 0.19 0.23 0.27 0.27 0.27
0.49 0.52 0.58 0.58 0.49 0.48 0.44 0.41 0.37 0.36 0.42 0.42 0.38 0.39 0.29 0.18 0.16 0.18 0.18 0.17 0.16 0.12
0.51 0.57 0.59 0.47 0.49 0.34 0.31 0.38 0.52 0.64 0.69 0.59 0.42 0.51 0.28 0.19 0.12 0.11 0.14 0.14 0.12 0.16
0.57 0.60 0.65 0.62 0.59 0.62 0.68 0.66 0.57 0.59 0.63 0.80 0.92 1.03 0.88 0.74 0.51 0.49 0.49 0.46 0.42 0.32
0.52 0.64 0.78 0.75 0.76 0.94 0.94 0.81 0.73 0.70 0.62 0.48 0.53 0.68 0.69 0.88 0.92 1.02 0.91 0.87 0.78 0.83
0.73 0.79 0.92 1.09 1.13 0.98 0.92 0.97 0.96 0.95 0.99 0.83 0.68 0.85 0.65 0.62 0.45 0.56 0.62 0.58 0.60 0.63
1.33 1.47 1.57 1.51 1.40 1.47 1.45 1.35 1.29 1.25 1.18 1.31 0.96 1.35 1.18 1.07 0.91 0.96 0.91 0.76 0.72 1.18
1.27 1.37 1.32 1.49 1.58 1.73 1.97 2.08 1.97 1.84 1.56 1.41 1.51 1.59 1.70 1.71 1.53 1.55 1.48 1.35 1.25 1.39

GFSNIL_prec_precacc_129.txt.gz
Total_Precipitation_Accumulation
0.40 0.47 0.55 0.58 0.70 0.43 0.46 0.41 0.55 0.71 0.83 0.71 0.56 0.56 0.77 0.98 1.04 1.07 0.82 0.68 0.61 0.58
0.52 0.53 0.42 0.47 0.75 0.55 0.48 0.45 0.59 0.65 0.59 0.69 0.62 0.61 0.72 0.79 0.68 0.73 0.82 0.73 0.62 0.51
0.38 0.48 0.60 0.91 1.18 1.32 1.16 0.98 0.66 0.65 0.69 0.58 0.43 0.41 0.40 0.41 0.43 0.46 0.55 0.68 0.65 0.49
0.49 0.72 1.09 0.99 1.25 1.07 1.07 1.20 1.04 0.82 0.80 0.67 0.62 0.58 0.51 0.43 0.37 0.36 0.33 0.34 0.45 0.48
1.28 1.52 1.38 1.57 2.07 1.46 1.12 0.92 0.72 0.62 0.51 0.46 0.48 0.48 0.41 0.32 0.27 0.28 0.30 0.34 0.39 0.40
1.82 1.41 1.05 0.82 0.59 0.57 0.53 0.47 0.37 0.31 0.31 0.32 0.33 0.37 0.44 0.49 0.44 0.41 0.37 0.37 0.40 0.40
0.96 1.06 0.89 0.78 0.59 0.63 0.62 0.55 0.45 0.42 0.41 0.42 0.38 0.32 0.30 0.28 0.24 0.24 0.31 0.35 0.34 0.34
0.49 0.52 0.59 0.59 0.50 0.49 0.45 0.42 0.39 0.39 0.46 0.47 0.44 0.45 0.33 0.21 0.20 0.23 0.25 0.27 0.27 0.24
0.51 0.57 0.59 0.47 0.49 0.34 0.31 0.39 0.53 0.66 0.72 0.62 0.45 0.60 0.36 0.24 0.16 0.14 0.17 0.17 0.16 0.21
0.57 0.60 0.65 0.62 0.59 0.62 0.68 0.66 0.57 0.59 0.63 0.80 0.92 1.04 0.90 0.76 0.53 0.52 0.53 0.51 0.47 0.37
0.52 0.64 0.78 0.75 0.76 0.94 0.94 0.81 0.73 0.70 0.62 0.48 0.53 0.68 0.70 0.91 0.95 1.07 0.99 0.94 0.86 0.90
0.73 0.79 0.92 1.09 1.14 0.98 0.92 0.97 0.96 0.95 0.99 0.83 0.68 0.85 0.65 0.62 0.45 0.57 0.64 0.61 0.65 0.72
1.34 1.48 1.58 1.52 1.40 1.47 1.45 1.35 1.29 1.26 1.18 1.32 0.96 1.35 1.18 1.07 0.91 0.96 0.91 0.77 0.75 1.24
1.27 1.38 1.32 1.49 1.59 1.73 1.97 2.09 1.97 1.84 1.56 1.42 1.51 1.59 1.70 1.71 1.53 1.56 1.49 1.36 1.27 1.43

GFSNIL_prec_precacc_132.txt.gz
Total_Precipitation_Accumulation
0.45 0.58 0.90 0.93 1.28 1.54 1.76 1.48 1.76 1.23 0.92 0.76 0.62 0.64 0.85 1.00 1.06 1.08 0.85 0.70 0.62 0.60
0.58 0.59 0.53 0.66 1.10 1.15 1.02 0.83 0.91 0.81 0.64 0.74 0.66 0.63 0.76 0.84 0.72 0.78 0.85 0.74 0.64 0.55
0.51 0.57 0.67 0.97 1.26 1.52 1.60 1.43 0.88 0.77 0.74 0.63 0.48 0.44 0.42 0.44 0.46 0.54 0.61 0.74 0.75 0.62
0.54 0.81 1.15 1.09 1.33 1.17 1.17 1.31 1.10 0.85 0.82 0.70 0.65 0.60 0.53 0.44 0.40 0.42 0.40 0.41 0.50 0.55
1.29 1.55 1.45 1.63 2.14 1.49 1.15 0.95 0.73 0.63 0.52 0.47 0.49 0.50 0.43 0.34 0.30 0.31 0.35 0.38 0.42 0.41
1.83 1.41 1.06 0.83 0.62 0.60 0.55 0.48 0.37 0.31 0.31 0.32 0.33 0.38 0.45 0.51 0.46 0.46 0.44 0.46 0.50 0.51
1.00 1.08 0.90 0.78 0.59 0.64 0.62 0.55 0.45 0.42 0.41 0.42 0.38 0.32 0.31 0.29 0.25 0.26 0.34 0.42 0.44 0.44
0.52 0.54 0.60 0.60 0.51 0.49 0.46 0.45 0.43 0.42 0.49 0.49 0.45 0.46 0.35 0.24 0.22 0.25 0.29 0.33 0.37 0.37
0.53 0.58 0.59 0.47 0.49 0.35 0.31 0.39 0.54 0.68 0.76 0.68 0.51 0.66 0.42 0.36 0.30 0.28 0.28 0.27 0.25 0.33
0.57 0.60 0.65 0.62 0.59 0.63 0.69 0.66 0.57 0.59 0.63 0.81 0.93 1.05 0.90 0.77 0.55 0.57 0.61 0.62 0.60 0.49
0.52 0.64 0.78 0.75 0.76 0.95 0.94 0.81 0.73 0.70 0.62 0.48 0.53 0.68 0.70 0.91 0.95 1.07 0.99 0.94 0.86 0.92
0.73 0.79 0.92 1.09 1.14 0.98 0.92 0.97 0.96 0.95 0.99 0.83 0.68 0.85 0.65 0.62 0.45 0.57 0.64 0.61 0.66 0.73
1.34 1.48 1.58 1.52 1.40 1.47 1.46 1.35 1.29 1.26 1.19 1.32 0.97 1.35 1.18 1.08 0.91 0.96 0.91 0.77 0.75 1.24
1.27 1.38 1.32 1.49 1.59 1.73 1.97 2.09 1.97 1.84 1.57 1.42 1.51 1.59 1.70 1.71 1.53 1.56 1.49 1.36 1.27 1.43

GFSNIL_prec_precacc_135.txt.gz
Total_Precipitation_Accumulation
0.50 0.62 0.93 1.06 1.39 2.14 2.83 2.54 2.89 3.12 2.37 1.58 1.01 0.92 1.09 1.14 1.12 1.12 0.93 0.78 0.64 0.61
0.68 0.67 0.58 0.73 1.36 1.44 1.35 1.49 1.90 2.08 1.69 1.85 1.91 1.49 1.25 1.19 1.07 1.07 0.97 0.78 0.67 0.56
0.68 0.71 0.76 0.99 1.35 1.79 2.05 1.89 1.43 1.36 1.21 1.08 1.03 1.10 0.75 0.62 0.64 0.72 0.78 0.85 0.84 0.68
0.78 1.11 1.27 1.11 1.35 1.28 1.38 1.68 1.57 1.30 1.16 1.00 0.86 0.78 0.64 0.49 0.42 0.46 0.47 0.51 0.63 0.67
1.48 1.68 1.57 1.69 2.17 1.54 1.24 1.05 0.88 0.80 0.75 0.65 0.59 0.57 0.48 0.40 0.34 0.34 0.38 0.43 0.48 0.49
1.93 1.43 1.07 0.94 0.74 0.64 0.63 0.55 0.43 0.40 0.44 0.43 0.39 0.41 0.48 0.55 0.48 0.47 0.46 0.49 0.55 0.55
1.17 1.09 0.90 0.78 0.66 0.71 0.64 0.62 0.54 0.47 0.45 0.47 0.41 0.33 0.31 0.29 0.26 0.27 0.36 0.44 0.47 0.47
0.60 0.56 0.61 0.60 0.51 0.49 0.46 0.45 0.43 0.44 0.49 0.50 0.46 0.47 0.35 0.24 0.22 0.25 0.29 0.34 0.38 0.40
0.56 0.60 0.60 0.47 0.49 0.35 0.31 0.39 0.54 0.68 0.76 0.68 0.52 0.68 0.44 0.39 0.33 0.31 0.31 0.30 0.31 0.38
0.58 0.61 0.67 0.62 0.59 0.63 0.69 0.66 0.57 0.59 0.63 0.81 0.93 1.05 0.91 0.78 0.56 0.58 0.64 0.65 0.62 0.52
0.52 0.64 0.78 0.75 0.76 0.95 0.94 0.81 0.73 0.70 0.62 0.48 0.53 0.68 0.70 0.91 0.95 1.07 0.99 0.94 0.86 0.92
0.73 0.79 0.92 1.09 1.14 0.98 0.92 0.97 0.96 0.95 0.99 0.83 0.68 0.85 0.65 0.62 0.45 0.57 0.64 0.61 0.66 0.73
1.34 1.48 1.58 1.52 1.40 1.47 1.46 1.35 1.29 1.26 1.19 1.32 0.97 1.35 1.18 1.08 0.91 0.96 0.91 0.77 0.75 1.24
1.27 1.38 1.32 1.49 1.59 1.73 1.97 2.09 1.97 1.84 1.57 1.42 1.51 1.59 1.70 1.71 1.53 1.56 1.49 1.36 1.27 1.43

GFSNIL_prec_precacc_138.txt.gz
Total_Precipitation_Accumulation
0.51 0.63 0.94 1.08 1.40 2.17 2.88 2.58 2.97 3.45 3.67 2.94 2.26 2.24 1.54 1.28 1.21 1.16 0.97 0.80 0.65 0.62
0.69 0.69 0.61 0.77 1.39 1.47 1.38 1.55 1.99 2.23 2.43 3.04 3.12 2.61 2.12 1.70 1.39 1.33 1.25 1.00 0.78 0.63
0.73 0.74 0.85 1.08 1.45 1.84 2.09 1.93 1.50 1.61 1.68 1.53 1.41 1.55 1.78 1.85 1.64 1.70 1.54 1.38 1.30 0.90
0.95 1.33 1.50 1.30 1.50 1.38 1.45 1.74 1.68 1.43 1.44 1.36 1.23 1.15 1.15 1.05 1.18 1.54 1.75 1.54 1.33 0.94
2.15 2.56 1.94 1.90 2.28 1.58 1.32 1.21 0.97 0.85 0.82 0.87 0.92 0.96 0.86 0.89 0.80 0.74 0.81 0.92 0.83 0.59
2.42 1.91 1.66 1.11 0.79 0.64 0.65 0.68 0.52 0.42 0.46 0.53 0.56 0.63 0.76 0.85 0.76 0.81 0.67 0.64 0.62 0.57
1.84 1.26 1.00 0.94 0.70 0.74 0.65 0.63 0.57 0.48 0.47 0.49 0.49 0.50 0.52 0.49 0.37 0.34 0.42 0.48 0.49 0.47
0.79 0.69 0.65 0.61 0.51 0.50 0.46 0.45 0.43 0.46 0.52 0.52 0.48 0.49 0.39 0.29 0.25 0.27 0.29 0.34 0.38 0.41
0.59 0.62 0.61 0.48 0.49 0.35 0.31 0.39 0.54 0.68 0.76 0.68 0.52 0.68 0.44 0.39 0.33 0.31 0.31 0.30 0.31 0.38
0.59 0.62 0.67 0.62 0.59 0.63 0.69 0.66 0.57 0.59 0.63 0.81 0.93 1.05 0.91 0.78 0.56 0.58 0.64 0.65 0.62 0.52
0.52 0.64 0.79 0.75 0.76 0.95 0.95 0.81 0.73 0.70 0.62 0.48 0.53 0.68 0.70 0.91 0.95 1.07 0.99 0.94 0.86 0.92
0.73 0.79 0.92 1.09 1.14 0.98 0.92 0.97 0.96 0.95 0.99 0.83 0.68 0.85 0.65 0.62 0.45 0.57 0.64 0.61 0.66 0.73
1.34 1.48 1.58 1.52 1.40 1.47 1.46 1.35 1.29 1.26 1.19 1.32 0.97 1.35 1.18 1.08 0.91 0.96 0.91 0.77 0.75 1.24
1.27 1.38 1.32 1.49 1.59 1.73 1.97 2.09 1.97 1.84 1.57 1.42 1.51 1.59 1.70 1.71 1.53 1.56 1.49 1.36 1.27 1.43